| time (UTC) | temp F | wind direction | speed knots | gust knots | rain 1hr in | rain 24hr in | rain mn in | humidity % | barometer mb |
| 20260502164303 | 67 | 181 | 5.2 | 9.6 | 0.00 | 0.49 | 0.00 | 52 | 1023.1 |
| 20260502164203 | 67 | 178 | 5.2 | 9.6 | 0.00 | 0.49 | 0.00 | 53 | 1023.1 |
| 20260502164103 | 67 | 178 | 5.2 | 9.6 | 0.00 | 0.49 | 0.00 | 52 | 1023.1 |
| 20260502164003 | 67 | 178 | 5.2 | 8.7 | 0.00 | 0.49 | 0.00 | 52 | 1023.0 |
| 20260502163924 | 67 | 183 | 5.2 | 13.9 | 0.00 | 0.49 | 0.00 | 53 | 1023.1 |
| 20260502163803 | 67 | 188 | 5.2 | 13.9 | 0.00 | 0.49 | 0.00 | 52 | 1023.1 |
| 20260502163703 | 67 | 191 | 5.2 | 13.9 | 0.00 | 0.49 | 0.00 | 53 | 1023.1 |
| 20260502163624 | 67 | 191 | 5.2 | 13.9 | 0.00 | 0.49 | 0.00 | 53 | 1023.1 |
| 20260502163503 | 67 | 191 | 5.2 | 13.9 | 0.00 | 0.49 | 0.00 | 53 | 1023.0 |
| 20260502163403 | 67 | 193 | 5.2 | 13.9 | 0.00 | 0.49 | 0.00 | 52 | 1023.0 |
| 20260502163303 | 67 | 195 | 5.2 | 13.9 | 0.00 | 0.49 | 0.00 | 52 | 1023.0 |
| 20260502163203 | 67 | 199 | 5.2 | 13.9 | 0.00 | 0.49 | 0.00 | 53 | 1023.1 |
| 20260502163124 | 67 | 198 | 5.2 | 13.9 | 0.00 | 0.49 | 0.00 | 53 | 1023.1 |
| 20260502163003 | 67 | 199 | 4.3 | 13.9 | 0.00 | 0.49 | 0.00 | 52 | 1023.1 |
| 20260502162903 | 67 | 190 | 4.3 | 8.7 | 0.00 | 0.49 | 0.00 | 52 | 1023.1 |
| 20260502162803 | 66 | 187 | 4.3 | 8.7 | 0.00 | 0.49 | 0.00 | 53 | 1023.1 |
| 20260502162703 | 66 | 183 | 3.5 | 8.7 | 0.00 | 0.49 | 0.00 | 52 | 1023.1 |
| 20260502162603 | 66 | 183 | 4.3 | 8.7 | 0.00 | 0.49 | 0.00 | 51 | 1023.1 |
| 20260502162524 | 67 | 184 | 4.3 | 8.7 | 0.00 | 0.49 | 0.00 | 52 | 1023.1 |
| 20260502162403 | 67 | 185 | 4.3 | 8.7 | 0.00 | 0.49 | 0.00 | 52 | 1023.1 |
| 20260502162304 | 67 | 184 | 3.5 | 8.7 | 0.00 | 0.49 | 0.00 | 52 | 1023.1 |
| 20260502162203 | 67 | 182 | 3.5 | 8.7 | 0.00 | 0.49 | 0.00 | 52 | 1023.1 |
| 20260502162103 | 67 | 181 | 3.5 | 7.8 | 0.00 | 0.49 | 0.00 | 53 | 1023.1 |
| 20260502162003 | 66 | 182 | 4.3 | 9.6 | 0.00 | 0.49 | 0.00 | 52 | 1023.1 |
| 20260502161903 | 66 | 181 | 4.3 | 9.6 | 0.00 | 0.49 | 0.00 | 52 | 1023.1 |
| 20260502161803 | 66 | 180 | 4.3 | 9.6 | 0.00 | 0.49 | 0.00 | 53 | 1023.1 |
| 20260502161703 | 66 | 179 | 4.3 | 9.6 | 0.00 | 0.49 | 0.00 | 52 | 1023.1 |
| 20260502161603 | 66 | 177 | 3.5 | 9.6 | 0.00 | 0.49 | 0.00 | 52 | 1023.2 |
| 20260502161503 | 66 | 175 | 3.5 | 9.6 | 0.00 | 0.49 | 0.00 | 53 | 1023.1 |
| 20260502161424 | 66 | 172 | 3.5 | 9.6 | 0.00 | 0.49 | 0.00 | 52 | 1023.1 |
| 20260502161303 | 66 | 173 | 3.5 | 9.6 | 0.00 | 0.49 | 0.00 | 52 | 1023.1 |
| 20260502161203 | 66 | 170 | 2.6 | 9.6 | 0.00 | 0.49 | 0.00 | 52 | 1023.1 |
| 20260502161103 | 66 | 174 | 2.6 | 9.6 | 0.00 | 0.49 | 0.00 | 51 | 1023.1 |
| 20260502161003 | 66 | 169 | 2.6 | 7.0 | 0.00 | 0.49 | 0.00 | 52 | 1023.2 |
| 20260502160903 | 66 | 169 | 2.6 | 7.0 | 0.00 | 0.49 | 0.00 | 52 | 1023.2 |
| 20260502160824 | 66 | 172 | 1.7 | 7.0 | 0.00 | 0.49 | 0.00 | 52 | 1023.2 |
| 20260502160703 | 66 | 185 | 2.6 | 7.0 | 0.00 | 0.49 | 0.00 | 53 | 1023.1 |
| 20260502160603 | 66 | 192 | 2.6 | 8.7 | 0.00 | 0.49 | 0.00 | 52 | 1023.1 |
| 20260502160503 | 66 | 191 | 2.6 | 8.7 | 0.00 | 0.49 | 0.00 | 52 | 1023.1 |
| 20260502160403 | 66 | 191 | 2.6 | 8.7 | 0.00 | 0.50 | 0.00 | 52 | 1023.1 |
| 20260502160324 | 66 | 190 | 2.6 | 8.7 | 0.00 | 0.50 | 0.00 | 52 | 1023.1 |
| 20260502160203 | 66 | 195 | 2.6 | 8.7 | 0.00 | 0.50 | 0.00 | 51 | 1023.1 |
| 20260502160124 | 66 | 193 | 2.6 | 8.7 | 0.00 | 0.50 | 0.00 | 51 | 1023.1 |
| 20260502152305 | 64 | 0 | 0.0 | 0.9 | 0.00 | 0.52 | 0.00 | 51 | 1023.1 |
| 20260502152203 | 64 | 152 | 0.0 | 3.5 | 0.00 | 0.52 | 0.00 | 52 | 1023.0 |
| 20260502152103 | 64 | 152 | 0.0 | 3.5 | 0.00 | 0.52 | 0.00 | 52 | 1023.0 |
| 20260502152003 | 64 | 152 | 0.0 | 3.5 | 0.00 | 0.52 | 0.00 | 52 | 1023.1 |
| 20260502151924 | 63 | 152 | 0.0 | 3.5 | 0.00 | 0.52 | 0.00 | 52 | 1023.0 |
| 20260502151803 | 63 | 152 | 0.0 | 3.5 | 0.00 | 0.52 | 0.00 | 52 | 1023.0 |
| 20260502151703 | 63 | 152 | 0.0 | 3.5 | 0.00 | 0.52 | 0.00 | 52 | 1023.1 |
| 20260502151603 | 63 | 152 | 0.0 | 3.5 | 0.00 | 0.52 | 0.00 | 52 | 1023.1 |
| 20260502151524 | 63 | 158 | 0.0 | 3.5 | 0.00 | 0.52 | 0.00 | 52 | 1023.1 |
| 20260502151403 | 63 | 156 | 0.0 | 3.5 | 0.00 | 0.52 | 0.00 | 52 | 1023.1 |
| 20260502151303 | 63 | 156 | 0.0 | 3.5 | 0.00 | 0.52 | 0.00 | 52 | 1023.1 |
| 20260502151224 | 63 | 156 | 0.0 | 3.5 | 0.00 | 0.52 | 0.00 | 51 | 1023.1 |
| 20260502151103 | 63 | 161 | 0.0 | 1.7 | 0.00 | 0.52 | 0.00 | 52 | 1023.1 |
| 20260502151003 | 63 | 161 | 0.0 | 1.7 | 0.00 | 0.52 | 0.00 | 51 | 1023.0 |
| 20260502150903 | 63 | 161 | 0.0 | 1.7 | 0.00 | 0.52 | 0.00 | 51 | 1023.1 |
| 20260502150803 | 63 | 161 | 0.0 | 1.7 | 0.00 | 0.52 | 0.00 | 51 | 1023.1 |
| 20260502150703 | 63 | 161 | 0.0 | 1.7 | 0.00 | 0.52 | 0.00 | 51 | 1023.0 |
| 20260502150603 | 63 | 161 | 0.0 | 1.7 | 0.00 | 0.52 | 0.00 | 51 | 1023.1 |
| 20260502150524 | 63 | 157 | 0.0 | 1.7 | 0.00 | 0.52 | 0.00 | 51 | 1023.0 |
| 20260502150403 | 63 | 168 | 0.0 | 1.7 | 0.00 | 0.52 | 0.00 | 51 | 1023.0 |
| 20260502150303 | 63 | 176 | 0.0 | 1.7 | 0.00 | 0.52 | 0.00 | 51 | 1023.0 |
| 20260502150203 | 63 | 178 | 0.0 | 1.7 | 0.00 | 0.52 | 0.00 | 51 | 1023.0 |
| 20260502150103 | 62 | 202 | 0.0 | 0.9 | 0.00 | 0.52 | 0.00 | 51 | 1023.0 |
| 20260502140124 | 59 | 163 | 0.0 | 3.5 | 0.00 | 0.68 | 0.00 | 38 | 1022.4 |
| 20260502130703 | 56 | 153 | 0.0 | 1.7 | 0.00 | 0.75 | 0.00 | 1 | 1021.8 |
| 20260502130603 | 56 | 153 | 0.0 | 1.7 | 0.00 | 0.75 | 0.00 | 1 | 1021.8 |
| 20260502130503 | 56 | 153 | 0.0 | 1.7 | 0.00 | 0.75 | 0.00 | 1 | 1021.8 |
| 20260502130403 | 56 | 153 | 0.0 | 1.7 | 0.00 | 0.75 | 0.00 | 1 | 1021.7 |
| 20260502130303 | 56 | 0 | 0.0 | 0.0 | 0.00 | 0.76 | 0.00 | 1 | 1021.8 |
| 20260502130203 | 56 | 0 | 0.0 | 0.0 | 0.00 | 0.76 | 0.00 | 1 | 1021.8 |
| 20260502123803 | 54 | 0 | 0.0 | 0.0 | 0.00 | 0.86 | 0.00 | 1 | 1021.4 |
| 20260502123724 | 54 | 0 | 0.0 | 0.0 | 0.00 | 0.86 | 0.00 | 1 | 1021.3 |
| 20260502123603 | 54 | 0 | 0.0 | 0.0 | 0.00 | 0.87 | 0.00 | 1 | 1021.3 |
| 20260502123524 | 54 | 0 | 0.0 | 0.0 | 0.00 | 0.87 | 0.00 | 1 | 1021.3 |
| 20260502123404 | 54 | 0 | 0.0 | 0.0 | 0.00 | 0.87 | 0.00 | 1 | 1021.3 |
| 20260502123303 | 54 | 0 | 0.0 | 0.0 | 0.00 | 0.87 | 0.00 | 1 | 1021.3 |
| 20260502123203 | 54 | 0 | 0.0 | 0.0 | 0.00 | 0.87 | 0.00 | 1 | 1021.2 |
| 20260502123103 | 53 | 0 | 0.0 | 0.0 | 0.00 | 0.87 | 0.00 | 1 | 1021.2 |
| 20260502123003 | 53 | 0 | 0.0 | 0.0 | 0.00 | 0.87 | 0.00 | 1 | 1021.1 |
| 20260502122924 | 53 | 0 | 0.0 | 0.0 | 0.00 | 0.87 | 0.00 | 1 | 1021.1 |
| 20260502122803 | 53 | 0 | 0.0 | 0.0 | 0.00 | 0.87 | 0.00 | 1 | 1021.2 |
| 20260502122703 | 53 | 0 | 0.0 | 0.0 | 0.00 | 0.87 | 0.00 | 1 | 1021.2 |
| 20260502122604 | 53 | 0 | 0.0 | 0.0 | 0.00 | 0.87 | 0.00 | 1 | 1021.1 |
| 20260502122505 | 53 | 0 | 0.0 | 0.0 | 0.00 | 0.87 | 0.00 | 1 | 1021.2 |
| 20260502122425 | 53 | 0 | 0.0 | 0.0 | 0.00 | 0.87 | 0.00 | 1 | 1021.2 |
| 20260502122306 | 53 | 0 | 0.0 | 0.0 | 0.00 | 0.88 | 0.00 | 1 | 1021.2 |
| 20260502122205 | 53 | 0 | 0.0 | 0.0 | 0.00 | 0.88 | 0.00 | 1 | 1021.1 |
| 20260502122104 | 53 | 0 | 0.0 | 0.0 | 0.00 | 0.88 | 0.00 | 1 | 1021.1 |
| 20260502122004 | 53 | 0 | 0.0 | 0.0 | 0.00 | 0.88 | 0.00 | 1 | 1021.1 |
| 20260502121904 | 53 | 0 | 0.0 | 0.0 | 0.00 | 0.88 | 0.00 | 1 | 1021.1 |
| 20260502121804 | 53 | 0 | 0.0 | 0.0 | 0.00 | 0.89 | 0.00 | 1 | 1021.1 |
| 20260502121704 | 53 | 0 | 0.0 | 0.0 | 0.00 | 0.89 | 0.00 | 1 | 1021.1 |
| 20260502121604 | 53 | 0 | 0.0 | 0.0 | 0.00 | 0.90 | 0.00 | 1 | 1021.1 |
| 20260502121504 | 53 | 0 | 0.0 | 0.0 | 0.00 | 0.90 | 0.00 | 1 | 1021.0 |
| 20260502121425 | 53 | 0 | 0.0 | 0.0 | 0.00 | 0.91 | 0.00 | 1 | 1021.0 |
| 20260502121325 | 53 | 0 | 0.0 | 0.0 | 0.00 | 0.91 | 0.00 | 1 | 1021.0 |
| 20260502121204 | 53 | 0 | 0.0 | 0.0 | 0.00 | 0.92 | 0.00 | 1 | 1021.1 |
| 20260502121125 | 53 | 0 | 0.0 | 0.0 | 0.00 | 0.92 | 0.00 | 1 | 1021.0 |
| 20260502121005 | 53 | 0 | 0.0 | 0.0 | 0.00 | 0.93 | 0.00 | 1 | 1021.0 |
| 20260502120904 | 53 | 0 | 0.0 | 0.0 | 0.00 | 0.94 | 0.00 | 1 | 1020.9 |
| 20260502120825 | 52 | 0 | 0.0 | 0.0 | 0.00 | 0.94 | 0.00 | 1 | 1020.9 |
| 20260502120704 | 52 | 0 | 0.0 | 0.0 | 0.00 | 0.95 | 0.00 | 1 | 1021.0 |
| 20260502120604 | 52 | 0 | 0.0 | 0.0 | 0.00 | 0.95 | 0.00 | 1 | 1020.9 |
| 20260502120525 | 52 | 0 | 0.0 | 0.0 | 0.00 | 0.96 | 0.00 | 1 | 1020.9 |
| 20260502120404 | 52 | 0 | 0.0 | 0.0 | 0.00 | 0.96 | 0.00 | 1 | 1020.8 |
| 20260502120305 | 52 | 0 | 0.0 | 0.0 | 0.00 | 0.97 | 0.00 | 1 | 1020.8 |
| 20260502120204 | 52 | 0 | 0.0 | 0.0 | 0.00 | 0.97 | 0.00 | 1 | 1020.8 |
| 20260502120126 | 52 | 0 | 0.0 | 0.0 | 0.00 | 0.98 | 0.00 | 1 | 1020.8 |
| 20260502115904 | 52 | 0 | 0.0 | 0.0 | 0.00 | 0.99 | 0.00 | 1 | 1020.8 |
| 20260502115804 | 52 | 0 | 0.0 | 0.0 | 0.00 | 0.99 | 0.00 | 1 | 1020.8 |
| 20260502115704 | 52 | 0 | 0.0 | 0.0 | 0.00 | 1.00 | 0.00 | 1 | 1020.8 |
| 20260502115605 | 52 | 0 | 0.0 | 0.0 | 0.00 | 1.00 | 0.00 | 1 | 1020.8 |
| 20260502115504 | 52 | 0 | 0.0 | 0.0 | 0.00 | 1.00 | 0.00 | 1 | 1020.8 |
| 20260502115404 | 52 | 0 | 0.0 | 0.0 | 0.00 | 1.01 | 0.00 | 1 | 1020.7 |
| 20260502115306 | 52 | 0 | 0.0 | 0.0 | 0.00 | 1.01 | 0.00 | 1 | 1020.7 |
| 20260502115204 | 52 | 0 | 0.0 | 0.0 | 0.00 | 1.01 | 0.00 | 1 | 1020.7 |
| 20260502115104 | 52 | 0 | 0.0 | 0.0 | 0.00 | 1.02 | 0.00 | 1 | 1020.7 |
| 20260502115005 | 52 | 0 | 0.0 | 0.0 | 0.00 | 1.02 | 0.00 | 1 | 1020.6 |
| 20260502114904 | 52 | 0 | 0.0 | 0.0 | 0.00 | 1.02 | 0.00 | 1 | 1020.7 |
| 20260502114825 | 52 | 0 | 0.0 | 0.0 | 0.00 | 1.02 | 0.00 | 1 | 1020.6 |
| 20260502114704 | 52 | 0 | 0.0 | 0.0 | 0.00 | 1.03 | 0.00 | 1 | 1020.6 |
| 20260502114604 | 52 | 0 | 0.0 | 0.0 | 0.00 | 1.03 | 0.00 | 1 | 1020.6 |
| 20260502114304 | 52 | 0 | 0.0 | 0.0 | 0.00 | 1.04 | 0.00 | 1 | 1020.6 |
| 20260502114204 | 52 | 0 | 0.0 | 0.0 | 0.00 | 1.04 | 0.00 | 1 | 1020.6 |
| 20260502114104 | 52 | 0 | 0.0 | 0.0 | 0.00 | 1.04 | 0.00 | 1 | 1020.6 |
| 20260502114004 | 52 | 0 | 0.0 | 0.0 | 0.00 | 1.04 | 0.00 | 1 | 1020.5 |
| 20260502113904 | 52 | 0 | 0.0 | 0.0 | 0.00 | 1.04 | 0.00 | 1 | 1020.5 |
| 20260502113804 | 52 | 0 | 0.0 | 0.0 | 0.00 | 1.04 | 0.00 | 1 | 1020.5 |
| 20260502113704 | 52 | 0 | 0.0 | 0.0 | 0.00 | 1.04 | 0.00 | 1 | 1020.4 |
| 20260502113604 | 52 | 0 | 0.0 | 0.0 | 0.00 | 1.04 | 0.00 | 1 | 1020.5 |
| 20260502113526 | 52 | 0 | 0.0 | 0.0 | 0.00 | 1.05 | 0.00 | 1 | 1020.5 |
| 20260502113405 | 52 | 0 | 0.0 | 0.0 | 0.00 | 1.05 | 0.00 | 1 | 1020.5 |
| 20260502113304 | 52 | 0 | 0.0 | 0.0 | 0.00 | 1.05 | 0.00 | 1 | 1020.5 |
| 20260502113204 | 52 | 0 | 0.0 | 0.0 | 0.00 | 1.05 | 0.00 | 1 | 1020.4 |
| 20260502113126 | 52 | 0 | 0.0 | 0.0 | 0.00 | 1.05 | 0.00 | 1 | 1020.4 |
| 20260502113004 | 52 | 0 | 0.0 | 0.0 | 0.00 | 1.06 | 0.00 | 1 | 1020.4 |
| 20260502112904 | 52 | 0 | 0.0 | 0.0 | 0.00 | 1.06 | 0.00 | 1 | 1020.4 |
| 20260502112804 | 52 | 0 | 0.0 | 0.0 | 0.00 | 1.06 | 0.00 | 1 | 1020.4 |
| 20260502112725 | 52 | 0 | 0.0 | 0.0 | 0.00 | 1.07 | 0.00 | 1 | 1020.4 |
| 20260502112605 | 52 | 0 | 0.0 | 0.0 | 0.00 | 1.07 | 0.00 | 1 | 1020.4 |
| 20260502112526 | 52 | 0 | 0.0 | 0.0 | 0.00 | 1.07 | 0.00 | 1 | 1020.4 |
| 20260502112404 | 52 | 0 | 0.0 | 0.0 | 0.00 | 1.07 | 0.00 | 1 | 1020.4 |
| 20260502112306 | 52 | 0 | 0.0 | 0.0 | 0.00 | 1.07 | 0.00 | 1 | 1020.3 |
| 20260502112204 | 52 | 0 | 0.0 | 0.0 | 0.00 | 1.08 | 0.00 | 1 | 1020.4 |
| 20260502112104 | 52 | 0 | 0.0 | 0.0 | 0.00 | 1.08 | 0.00 | 1 | 1020.3 |
| 20260502112004 | 52 | 0 | 0.0 | 0.0 | 0.00 | 1.08 | 0.00 | 1 | 1020.3 |
| 20260502111904 | 52 | 0 | 0.0 | 0.0 | 0.00 | 1.08 | 0.00 | 1 | 1020.3 |
| 20260502111805 | 52 | 0 | 0.0 | 0.0 | 0.00 | 1.09 | 0.00 | 1 | 1020.4 |
| 20260502111704 | 52 | 0 | 0.0 | 0.0 | 0.00 | 1.09 | 0.00 | 1 | 1020.4 |
| 20260502111604 | 52 | 0 | 0.0 | 0.0 | 0.00 | 1.09 | 0.00 | 1 | 1020.4 |
| 20260502111504 | 52 | 0 | 0.0 | 0.0 | 0.00 | 1.10 | 0.00 | 1 | 1020.4 |
| 20260502111404 | 52 | 0 | 0.0 | 0.0 | 0.00 | 1.10 | 0.00 | 1 | 1020.4 |
| 20260502111304 | 52 | 0 | 0.0 | 0.0 | 0.00 | 1.10 | 0.00 | 1 | 1020.4 |
| 20260502111205 | 52 | 0 | 0.0 | 0.0 | 0.00 | 1.11 | 0.00 | 1 | 1020.3 |
| 20260502111125 | 52 | 0 | 0.0 | 0.0 | 0.00 | 1.11 | 0.00 | 1 | 1020.3 |
| 20260502111004 | 52 | 0 | 0.0 | 0.0 | 0.00 | 1.12 | 0.00 | 1 | 1020.3 |
| 20260502110904 | 52 | 0 | 0.0 | 0.0 | 0.00 | 1.12 | 0.00 | 1 | 1020.3 |
| 20260502110825 | 52 | 0 | 0.0 | 0.0 | 0.00 | 1.13 | 0.00 | 1 | 1020.3 |
| 20260502110704 | 52 | 0 | 0.0 | 0.0 | 0.00 | 1.14 | 0.00 | 1 | 1020.2 |
| 20260502110604 | 52 | 0 | 0.0 | 0.0 | 0.00 | 1.14 | 0.00 | 1 | 1020.2 |
| 20260502110505 | 52 | 0 | 0.0 | 0.0 | 0.00 | 1.15 | 0.00 | 1 | 1020.2 |
| 20260502110405 | 52 | 0 | 0.0 | 0.0 | 0.00 | 1.15 | 0.00 | 1 | 1020.2 |
| 20260502110304 | 52 | 0 | 0.0 | 0.0 | 0.00 | 1.16 | 0.00 | 1 | 1020.2 |
| 20260502110204 | 52 | 0 | 0.0 | 0.0 | 0.00 | 1.16 | 0.00 | 1 | 1020.2 |
| 20260502110104 | 52 | 0 | 0.0 | 0.0 | 0.00 | 1.17 | 0.00 | 1 | 1020.3 |
| 20260502110005 | 52 | 0 | 0.0 | 0.0 | 0.00 | 1.17 | 0.00 | 1 | 1020.3 |
| 20260502105904 | 52 | 0 | 0.0 | 0.0 | 0.00 | 1.18 | 0.00 | 1 | 1020.3 |
| 20260502105804 | 52 | 0 | 0.0 | 0.0 | 0.00 | 1.18 | 0.00 | 1 | 1020.3 |
| 20260502105725 | 52 | 0 | 0.0 | 0.0 | 0.00 | 1.19 | 0.00 | 1 | 1020.2 |
| 20260502105604 | 52 | 0 | 0.0 | 0.0 | 0.00 | 1.19 | 0.00 | 1 | 1020.2 |
| 20260502105504 | 52 | 0 | 0.0 | 0.0 | 0.00 | 1.20 | 0.00 | 1 | 1020.2 |
| 20260502105404 | 52 | 0 | 0.0 | 0.0 | 0.00 | 1.20 | 0.00 | 1 | 1020.2 |
| 20260502105306 | 52 | 0 | 0.0 | 0.0 | 0.00 | 1.21 | 0.00 | 1 | 1020.2 |
| 20260502105225 | 52 | 0 | 0.0 | 0.0 | 0.00 | 1.21 | 0.00 | 1 | 1020.1 |
| 20260502105126 | 52 | 0 | 0.0 | 0.0 | 0.00 | 1.22 | 0.00 | 1 | 1020.1 |
| 20260502105025 | 52 | 0 | 0.0 | 0.0 | 0.00 | 1.22 | 0.00 | 1 | 1020.1 |
| 20260502104925 | 52 | 0 | 0.0 | 0.0 | 0.00 | 1.22 | 0.00 | 1 | 1020.0 |
| 20260502104804 | 52 | 0 | 0.0 | 0.0 | 0.00 | 1.23 | 0.00 | 1 | 1020.0 |
| 20260502104725 | 52 | 0 | 0.0 | 0.0 | 0.00 | 1.23 | 0.00 | 1 | 1020.0 |
| 20260502104604 | 52 | 0 | 0.0 | 0.0 | 0.00 | 1.23 | 0.00 | 1 | 1020.0 |
| 20260502104526 | 52 | 0 | 0.0 | 0.0 | 0.00 | 1.24 | 0.00 | 1 | 1020.0 |
| 20260502104404 | 53 | 0 | 0.0 | 0.0 | 0.00 | 1.24 | 0.00 | 1 | 1020.0 |
| 20260502104304 | 53 | 0 | 0.0 | 0.0 | 0.00 | 1.24 | 0.00 | 1 | 1019.9 |
| 20260502104205 | 53 | 0 | 0.0 | 0.0 | 0.00 | 1.25 | 0.00 | 1 | 1019.9 |
| 20260502104104 | 53 | 0 | 0.0 | 0.0 | 0.00 | 1.25 | 0.00 | 1 | 1019.9 |
| 20260502104005 | 53 | 0 | 0.0 | 0.0 | 0.00 | 1.26 | 0.00 | 1 | 1019.8 |
| 20260502103904 | 53 | 0 | 0.0 | 0.0 | 0.00 | 1.26 | 0.00 | 1 | 1019.8 |
| 20260502103805 | 53 | 0 | 0.0 | 0.0 | 0.00 | 1.26 | 0.00 | 1 | 1019.8 |
| 20260502103704 | 53 | 0 | 0.0 | 0.0 | 0.00 | 1.26 | 0.00 | 1 | 1019.8 |
| 20260502103605 | 53 | 0 | 0.0 | 0.0 | 0.00 | 1.27 | 0.00 | 1 | 1019.8 |
| 20260502103504 | 53 | 0 | 0.0 | 0.0 | 0.00 | 1.27 | 0.00 | 1 | 1019.8 |
| 20260502103404 | 53 | 0 | 0.0 | 0.0 | 0.00 | 1.28 | 0.00 | 1 | 1019.8 |
| 20260502103304 | 53 | 0 | 0.0 | 0.0 | 0.00 | 1.28 | 0.00 | 1 | 1019.7 |
| 20260502103204 | 53 | 0 | 0.0 | 0.0 | 0.00 | 1.29 | 0.00 | 1 | 1019.7 |
| 20260502103105 | 53 | 0 | 0.0 | 0.0 | 0.00 | 1.29 | 0.00 | 1 | 1019.7 |
| 20260502103004 | 53 | 0 | 0.0 | 0.0 | 0.00 | 1.29 | 0.00 | 1 | 1019.7 |
| 20260502102904 | 53 | 0 | 0.0 | 0.0 | 0.00 | 1.30 | 0.00 | 1 | 1019.6 |
| 20260502102825 | 53 | 0 | 0.0 | 0.0 | 0.00 | 1.30 | 0.00 | 1 | 1019.6 |
| 20260502102726 | 53 | 0 | 0.0 | 0.0 | 0.00 | 1.31 | 0.00 | 1 | 1019.6 |
| 20260502102625 | 53 | 0 | 0.0 | 0.0 | 0.00 | 1.31 | 0.00 | 1 | 1019.5 |
| 20260502102525 | 53 | 0 | 0.0 | 0.0 | 0.00 | 1.32 | 0.00 | 1 | 1019.5 |
| 20260502102404 | 53 | 0 | 0.0 | 0.0 | 0.00 | 1.32 | 0.00 | 1 | 1019.5 |
| 20260502102306 | 53 | 0 | 0.0 | 0.0 | 0.00 | 1.32 | 0.00 | 1 | 1019.4 |
| 20260502102226 | 53 | 0 | 0.0 | 0.0 | 0.00 | 1.33 | 0.00 | 1 | 1019.4 |
| 20260502102104 | 53 | 0 | 0.0 | 0.0 | 0.00 | 1.33 | 0.00 | 1 | 1019.4 |
| 20260502102004 | 53 | 0 | 0.0 | 0.0 | 0.00 | 1.33 | 0.00 | 1 | 1019.4 |
| 20260502101904 | 53 | 0 | 0.0 | 0.0 | 0.00 | 1.34 | 0.00 | 1 | 1019.4 |
| 20260502101804 | 53 | 0 | 0.0 | 0.0 | 0.00 | 1.34 | 0.00 | 1 | 1019.4 |
| 20260502101604 | 53 | 0 | 0.0 | 0.0 | 0.00 | 1.34 | 0.00 | 1 | 1019.3 |
| 20260502101504 | 53 | 0 | 0.0 | 0.0 | 0.00 | 1.35 | 0.00 | 1 | 1019.3 |
| 20260502101404 | 53 | 0 | 0.0 | 0.0 | 0.00 | 1.35 | 0.00 | 1 | 1019.3 |
| 20260502101304 | 53 | 0 | 0.0 | 0.0 | 0.00 | 1.35 | 0.00 | 1 | 1019.3 |
| 20260502101204 | 53 | 0 | 0.0 | 0.0 | 0.00 | 1.35 | 0.00 | 1 | 1019.3 |
| 20260502101104 | 53 | 0 | 0.0 | 0.0 | 0.00 | 1.35 | 0.00 | 1 | 1019.3 |
| 20260502101004 | 53 | 0 | 0.0 | 0.0 | 0.00 | 1.35 | 0.00 | 1 | 1019.3 |
| 20260502100904 | 53 | 0 | 0.0 | 0.0 | 0.00 | 1.36 | 0.00 | 1 | 1019.2 |
| 20260502100804 | 53 | 0 | 0.0 | 0.0 | 0.00 | 1.36 | 0.00 | 1 | 1019.3 |
| 20260502100704 | 53 | 0 | 0.0 | 0.0 | 0.00 | 1.36 | 0.00 | 1 | 1019.2 |
| 20260502100604 | 53 | 0 | 0.0 | 0.0 | 0.00 | 1.36 | 0.00 | 1 | 1019.2 |
| 20260502100504 | 53 | 0 | 0.0 | 0.0 | 0.00 | 1.36 | 0.00 | 1 | 1019.3 |
| 20260502100404 | 53 | 0 | 0.0 | 0.0 | 0.00 | 1.36 | 0.00 | 1 | 1019.2 |
| 20260502100304 | 53 | 0 | 0.0 | 0.0 | 0.00 | 1.36 | 0.00 | 1 | 1019.2 |
| 20260502100204 | 53 | 0 | 0.0 | 0.0 | 0.00 | 1.36 | 0.00 | 1 | 1019.2 |
| 20260502100125 | 53 | 0 | 0.0 | 0.0 | 0.00 | 1.36 | 0.00 | 1 | 1019.2 |
| 20260502091504 | 53 | 176 | 0.0 | 1.7 | 0.00 | 1.45 | 0.00 | 1 | 1018.7 |
| 20260502091404 | 53 | 176 | 0.0 | 1.7 | 0.00 | 1.45 | 0.00 | 1 | 1018.6 |
| 20260502091325 | 53 | 176 | 0.0 | 1.7 | 0.00 | 1.45 | 0.00 | 1 | 1018.6 |
| 20260502091204 | 53 | 181 | 0.0 | 1.7 | 0.00 | 1.45 | 0.00 | 1 | 1018.6 |
| 20260502091104 | 53 | 175 | 0.0 | 1.7 | 0.00 | 1.46 | 0.00 | 1 | 1018.6 |
| 20260502091004 | 53 | 175 | 0.0 | 1.7 | 0.00 | 1.46 | 0.00 | 1 | 1018.7 |
| 20260502090904 | 53 | 174 | 0.0 | 1.7 | 0.00 | 1.46 | 0.00 | 1 | 1018.6 |
| 20260502090805 | 53 | 172 | 0.0 | 1.7 | 0.00 | 1.46 | 0.00 | 1 | 1018.7 |
| 20260502090704 | 53 | 172 | 0.0 | 1.7 | 0.00 | 1.46 | 0.00 | 1 | 1018.7 |
| 20260502090604 | 53 | 168 | 0.0 | 1.7 | 0.00 | 1.46 | 0.00 | 1 | 1018.7 |
| 20260502090504 | 53 | 166 | 0.0 | 1.7 | 0.00 | 1.46 | 0.00 | 1 | 1018.6 |
| 20260502090404 | 53 | 166 | 0.0 | 1.7 | 0.00 | 1.46 | 0.00 | 1 | 1018.7 |
| 20260502090304 | 53 | 166 | 0.0 | 1.7 | 0.00 | 1.46 | 0.00 | 1 | 1018.7 |
| 20260502090204 | 53 | 161 | 0.0 | 1.7 | 0.00 | 1.46 | 0.00 | 1 | 1018.6 |
| 20260502090104 | 53 | 162 | 0.0 | 1.7 | 0.00 | 1.46 | 0.00 | 1 | 1018.6 |
| 20260502071504 | 54 | 152 | 0.0 | 1.7 | 0.00 | 1.51 | 0.00 | 1 | 1018.5 |
| 20260502071404 | 54 | 152 | 0.0 | 1.7 | 0.00 | 1.51 | 0.00 | 1 | 1018.5 |
| 20260502071304 | 54 | 152 | 0.0 | 1.7 | 0.00 | 1.51 | 0.00 | 1 | 1018.5 |
| 20260502071204 | 54 | 152 | 0.0 | 1.7 | 0.00 | 1.51 | 0.00 | 1 | 1018.5 |
| 20260502071104 | 54 | 152 | 0.0 | 1.7 | 0.00 | 1.51 | 0.00 | 1 | 1018.4 |
| 20260502071004 | 54 | 152 | 0.0 | 1.7 | 0.00 | 1.51 | 0.00 | 1 | 1018.4 |
| 20260502070904 | 54 | 152 | 0.0 | 1.7 | 0.00 | 1.51 | 0.00 | 1 | 1018.4 |
| 20260502070804 | 54 | 0 | 0.0 | 0.0 | 0.00 | 1.51 | 0.00 | 1 | 1018.4 |
| 20260502070704 | 54 | 0 | 0.0 | 0.0 | 0.00 | 1.51 | 0.00 | 1 | 1018.4 |
| 20260502070604 | 54 | 0 | 0.0 | 0.0 | 0.00 | 1.51 | 0.00 | 1 | 1018.4 |
| 20260502070504 | 54 | 0 | 0.0 | 0.0 | 0.00 | 1.51 | 0.00 | 1 | 1018.3 |
| 20260502070404 | 54 | 0 | 0.0 | 0.0 | 0.00 | 1.51 | 0.00 | 1 | 1018.4 |
| 20260502070304 | 54 | 0 | 0.0 | 0.9 | 0.00 | 1.51 | 0.00 | 1 | 1018.3 |
| 20260502070204 | 54 | 0 | 0.0 | 0.9 | 0.00 | 1.51 | 0.00 | 1 | 1018.3 |
| 20260502070104 | 54 | 0 | 0.0 | 0.9 | 0.00 | 1.51 | 0.00 | 1 | 1018.3 |
| 20260502070004 | 54 | 0 | 0.0 | 0.9 | 0.00 | 1.51 | 0.00 | 1 | 1018.4 |
| 20260502065904 | 54 | 0 | 0.0 | 0.9 | 0.00 | 1.51 | 0.00 | 1 | 1018.3 |
| 20260502065804 | 54 | 0 | 0.0 | 0.9 | 0.00 | 1.51 | 0.00 | 1 | 1018.3 |
| 20260502065726 | 54 | 0 | 0.0 | 0.9 | 0.00 | 1.51 | 0.00 | 1 | 1018.3 |
| 20260502065604 | 54 | 0 | 0.0 | 0.9 | 0.00 | 1.51 | 0.00 | 1 | 1018.3 |
| 20260502065525 | 54 | 0 | 0.0 | 0.9 | 0.00 | 1.51 | 0.00 | 1 | 1018.4 |
| 20260502065404 | 54 | 0 | 0.0 | 0.9 | 0.00 | 1.51 | 0.00 | 1 | 1018.4 |
| 20260502065306 | 54 | 0 | 0.0 | 0.0 | 0.00 | 1.51 | 0.00 | 1 | 1018.4 |
| 20260502065204 | 54 | 0 | 0.0 | 0.0 | 0.00 | 1.51 | 0.00 | 1 | 1018.4 |
| 20260502065104 | 54 | 0 | 0.0 | 0.0 | 0.00 | 1.51 | 0.00 | 1 | 1018.4 |
| 20260502065004 | 54 | 0 | 0.0 | 0.0 | 0.00 | 1.51 | 0.00 | 1 | 1018.4 |
| 20260502064904 | 55 | 0 | 0.0 | 0.0 | 0.00 | 1.51 | 0.00 | 1 | 1018.4 |
| 20260502064805 | 55 | 0 | 0.0 | 0.0 | 0.00 | 1.51 | 0.00 | 1 | 1018.4 |
| 20260502064705 | 55 | 0 | 0.0 | 0.0 | 0.00 | 1.51 | 0.00 | 1 | 1018.4 |
| 20260502064604 | 55 | 0 | 0.0 | 0.0 | 0.00 | 1.51 | 0.00 | 1 | 1018.5 |
| 20260502064505 | 55 | 0 | 0.0 | 0.0 | 0.00 | 1.51 | 0.00 | 1 | 1018.5 |
| 20260502064404 | 55 | 0 | 0.0 | 0.0 | 0.00 | 1.51 | 0.00 | 1 | 1018.4 |
| 20260502064304 | 55 | 0 | 0.0 | 0.0 | 0.00 | 1.51 | 0.00 | 1 | 1018.4 |
| 20260502064204 | 55 | 0 | 0.0 | 0.0 | 0.00 | 1.51 | 0.00 | 1 | 1018.5 |
| 20260502064125 | 55 | 0 | 0.0 | 0.0 | 0.00 | 1.51 | 0.00 | 1 | 1018.5 |
| 20260502064004 | 55 | 0 | 0.0 | 0.0 | 0.00 | 1.51 | 0.00 | 1 | 1018.5 |
| 20260502063904 | 55 | 0 | 0.0 | 0.0 | 0.00 | 1.51 | 0.00 | 1 | 1018.4 |
| 20260502063804 | 55 | 0 | 0.0 | 0.0 | 0.00 | 1.51 | 0.00 | 1 | 1018.4 |
| 20260502063704 | 55 | 0 | 0.0 | 0.0 | 0.00 | 1.51 | 0.00 | 1 | 1018.5 |
| 20260502063625 | 55 | 0 | 0.0 | 0.0 | 0.00 | 1.51 | 0.00 | 1 | 1018.4 |
| 20260502063504 | 55 | 0 | 0.0 | 0.0 | 0.00 | 1.51 | 0.00 | 1 | 1018.5 |
| 20260502063404 | 55 | 0 | 0.0 | 0.0 | 0.00 | 1.51 | 0.00 | 1 | 1018.4 |
| 20260502063304 | 55 | 0 | 0.0 | 0.0 | 0.00 | 1.51 | 0.00 | 1 | 1018.4 |
| 20260502063204 | 55 | 0 | 0.0 | 0.0 | 0.00 | 1.51 | 0.00 | 1 | 1018.5 |
| 20260502063104 | 55 | 0 | 0.0 | 0.0 | 0.00 | 1.51 | 0.00 | 1 | 1018.4 |
| 20260502063004 | 55 | 0 | 0.0 | 0.0 | 0.00 | 1.51 | 0.00 | 1 | 1018.5 |
| 20260502062904 | 55 | 0 | 0.0 | 0.0 | 0.00 | 1.51 | 0.00 | 1 | 1018.5 |
| 20260502062804 | 55 | 0 | 0.0 | 0.0 | 0.00 | 1.51 | 0.00 | 1 | 1018.6 |
| 20260502062725 | 55 | 0 | 0.0 | 0.9 | 0.00 | 1.51 | 0.00 | 1 | 1018.6 |
| 20260502062604 | 55 | 0 | 0.0 | 0.9 | 0.00 | 1.51 | 0.00 | 1 | 1018.7 |
| 20260502062504 | 55 | 0 | 0.0 | 0.9 | 0.00 | 1.51 | 0.00 | 1 | 1018.7 |
| 20260502062425 | 55 | 0 | 0.0 | 0.9 | 0.00 | 1.51 | 0.00 | 1 | 1018.7 |
| 20260502062306 | 55 | 0 | 0.0 | 0.9 | 0.00 | 1.51 | 0.00 | 1 | 1018.7 |
| 20260502062204 | 55 | 0 | 0.0 | 0.9 | 0.00 | 1.51 | 0.00 | 1 | 1018.7 |
| 20260502062125 | 55 | 0 | 0.0 | 0.9 | 0.00 | 1.51 | 0.00 | 1 | 1018.7 |
| 20260502062025 | 55 | 0 | 0.0 | 0.9 | 0.00 | 1.51 | 0.00 | 1 | 1018.7 |
| 20260502061925 | 55 | 0 | 0.0 | 0.9 | 0.00 | 1.51 | 0.00 | 1 | 1018.7 |
| 20260502061804 | 55 | 0 | 0.0 | 0.9 | 0.00 | 1.51 | 0.00 | 1 | 1018.7 |
| 20260502061725 | 55 | 0 | 0.0 | 0.9 | 0.00 | 1.51 | 0.00 | 1 | 1018.7 |
| 20260502061604 | 55 | 0 | 0.0 | 0.9 | 0.00 | 1.51 | 0.00 | 1 | 1018.8 |
| 20260502061504 | 55 | 0 | 0.0 | 0.9 | 0.00 | 1.51 | 0.00 | 1 | 1018.7 |
| 20260502061404 | 55 | 0 | 0.0 | 0.9 | 0.00 | 1.51 | 0.00 | 1 | 1018.7 |
| 20260502061304 | 55 | 0 | 0.0 | 0.9 | 0.00 | 1.51 | 0.00 | 1 | 1018.7 |
| 20260502061204 | 55 | 0 | 0.0 | 0.9 | 0.00 | 1.51 | 0.00 | 1 | 1018.7 |
| 20260502061104 | 55 | 0 | 0.0 | 0.9 | 0.00 | 1.51 | 0.00 | 1 | 1018.7 |
| 20260502061004 | 55 | 0 | 0.0 | 0.9 | 0.00 | 1.51 | 0.00 | 1 | 1018.8 |
| 20260502060904 | 55 | 0 | 0.0 | 0.9 | 0.00 | 1.51 | 0.00 | 1 | 1018.8 |
| 20260502060804 | 55 | 0 | 0.0 | 0.9 | 0.00 | 1.51 | 0.00 | 1 | 1018.8 |
| 20260502060725 | 55 | 169 | 0.0 | 0.9 | 0.00 | 1.51 | 0.00 | 1 | 1018.8 |
| 20260502060604 | 55 | 194 | 0.0 | 3.5 | 0.00 | 1.51 | 0.00 | 1 | 1018.8 |
| 20260502060504 | 55 | 194 | 0.0 | 3.5 | 0.00 | 1.51 | 0.00 | 1 | 1018.8 |
| 20260502060404 | 55 | 194 | 0.0 | 3.5 | 0.00 | 1.51 | 0.00 | 1 | 1018.8 |
| 20260502060305 | 55 | 194 | 0.0 | 3.5 | 0.00 | 1.51 | 0.00 | 1 | 1018.8 |
| 20260502060225 | 55 | 194 | 0.0 | 3.5 | 0.00 | 1.51 | 0.00 | 1 | 1018.8 |
| 20260502060125 | 55 | 194 | 0.0 | 3.5 | 0.00 | 1.51 | 0.00 | 1 | 1018.8 |
| 20260502060005 | 55 | 194 | 0.0 | 3.5 | 0.00 | 1.51 | 0.00 | 1 | 1018.8 |
| 20260502055904 | 55 | 194 | 0.0 | 3.5 | 0.00 | 1.51 | 0.00 | 1 | 1018.7 |
| 20260502055804 | 55 | 194 | 0.0 | 3.5 | 0.00 | 1.51 | 0.00 | 1 | 1018.7 |
| 20260502055704 | 55 | 0 | 0.0 | 0.9 | 0.00 | 1.51 | 0.00 | 1 | 1018.7 |
| 20260502055604 | 55 | 0 | 0.0 | 0.9 | 0.00 | 1.51 | 0.00 | 1 | 1018.7 |
| 20260502055504 | 55 | 0 | 0.0 | 0.9 | 0.00 | 1.51 | 0.00 | 1 | 1018.6 |
| 20260502055426 | 55 | 0 | 0.0 | 0.9 | 0.00 | 1.51 | 0.00 | 1 | 1018.6 |
| 20260502055306 | 55 | 0 | 0.0 | 0.9 | 0.00 | 1.51 | 0.00 | 1 | 1018.6 |
| 20260502055225 | 55 | 0 | 0.0 | 0.9 | 0.00 | 1.51 | 0.00 | 1 | 1018.6 |
| 20260502055104 | 55 | 0 | 0.0 | 0.0 | 0.00 | 1.51 | 0.00 | 1 | 1018.6 |
| 20260502055004 | 55 | 0 | 0.0 | 0.0 | 0.00 | 1.51 | 0.00 | 1 | 1018.5 |
| 20260502054904 | 55 | 0 | 0.0 | 0.0 | 0.00 | 1.51 | 0.00 | 1 | 1018.5 |
| 20260502054825 | 55 | 0 | 0.0 | 0.0 | 0.00 | 1.51 | 0.00 | 1 | 1018.6 |
| 20260502054704 | 55 | 0 | 0.0 | 0.0 | 0.00 | 1.51 | 0.00 | 1 | 1018.6 |
| 20260502054604 | 55 | 0 | 0.0 | 0.0 | 0.00 | 1.51 | 0.00 | 1 | 1018.5 |
| 20260502054504 | 55 | 0 | 0.0 | 0.0 | 0.00 | 1.51 | 0.00 | 1 | 1018.5 |
| 20260502054404 | 55 | 0 | 0.0 | 0.0 | 0.00 | 1.51 | 0.00 | 1 | 1018.4 |
| 20260502054304 | 55 | 0 | 0.0 | 0.0 | 0.00 | 1.51 | 0.00 | 1 | 1018.5 |
| 20260502054204 | 55 | 188 | 0.0 | 1.7 | 0.00 | 1.51 | 0.00 | 1 | 1018.5 |
| 20260502054106 | 55 | 188 | 0.0 | 1.7 | 0.00 | 1.51 | 0.00 | 1 | 1018.4 |
| 20260502054004 | 55 | 188 | 0.0 | 1.7 | 0.00 | 1.51 | 0.00 | 1 | 1018.5 |
| 20260502053904 | 55 | 188 | 0.0 | 1.7 | 0.00 | 1.51 | 0.00 | 1 | 1018.4 |
| 20260502053804 | 55 | 189 | 0.0 | 1.7 | 0.00 | 1.51 | 0.00 | 1 | 1018.4 |
| 20260502053704 | 55 | 189 | 0.0 | 1.7 | 0.00 | 1.51 | 0.00 | 1 | 1018.5 |
| 20260502053604 | 55 | 189 | 0.0 | 1.7 | 0.00 | 1.51 | 0.00 | 1 | 1018.5 |
| 20260502053504 | 55 | 189 | 0.0 | 1.7 | 0.00 | 1.51 | 0.00 | 1 | 1018.4 |
| 20260502053405 | 55 | 189 | 0.0 | 1.7 | 0.00 | 1.51 | 0.00 | 1 | 1018.5 |
| 20260502053325 | 55 | 189 | 0.0 | 1.7 | 0.00 | 1.51 | 0.00 | 1 | 1018.4 |
| 20260502053204 | 55 | 190 | 0.0 | 1.7 | 0.00 | 1.51 | 0.00 | 1 | 1018.5 |
| 20260502053104 | 55 | 190 | 0.0 | 1.7 | 0.00 | 1.51 | 0.00 | 1 | 1018.5 |
| 20260502053025 | 55 | 190 | 0.0 | 1.7 | 0.00 | 1.51 | 0.00 | 1 | 1018.5 |
| 20260502052904 | 55 | 190 | 0.0 | 1.7 | 0.00 | 1.51 | 0.00 | 1 | 1018.5 |
| 20260502052804 | 55 | 0 | 0.0 | 0.0 | 0.00 | 1.51 | 0.00 | 1 | 1018.5 |
| 20260502052704 | 55 | 0 | 0.0 | 0.0 | 0.00 | 1.51 | 0.00 | 1 | 1018.6 |
| 20260502052604 | 55 | 0 | 0.0 | 0.0 | 0.00 | 1.51 | 0.00 | 1 | 1018.6 |
| 20260502052504 | 55 | 0 | 0.0 | 0.0 | 0.00 | 1.51 | 0.00 | 1 | 1018.5 |
| 20260502052404 | 55 | 0 | 0.0 | 0.0 | 0.00 | 1.51 | 0.00 | 1 | 1018.5 |
| 20260502052306 | 55 | 0 | 0.0 | 0.0 | 0.00 | 1.51 | 0.00 | 1 | 1018.5 |
| 20260502052205 | 55 | 0 | 0.0 | 0.0 | 0.00 | 1.51 | 0.00 | 1 | 1018.5 |
| 20260502052104 | 55 | 0 | 0.0 | 0.0 | 0.00 | 1.51 | 0.00 | 1 | 1018.5 |
| 20260502052004 | 55 | 0 | 0.0 | 0.0 | 0.00 | 1.51 | 0.00 | 1 | 1018.5 |
| 20260502051904 | 55 | 0 | 0.0 | 0.0 | 0.00 | 1.51 | 0.00 | 1 | 1018.5 |
| 20260502051804 | 55 | 0 | 0.0 | 0.0 | 0.00 | 1.51 | 0.00 | 1 | 1018.5 |
| 20260502051704 | 55 | 0 | 0.0 | 0.0 | 0.00 | 1.51 | 0.00 | 1 | 1018.4 |
| 20260502051604 | 55 | 0 | 0.0 | 0.0 | 0.00 | 1.51 | 0.00 | 1 | 1018.4 |
| 20260502051504 | 55 | 0 | 0.0 | 0.0 | 0.00 | 1.51 | 0.00 | 1 | 1018.4 |
| 20260502051404 | 55 | 0 | 0.0 | 0.0 | 0.00 | 1.51 | 0.00 | 1 | 1018.4 |
| 20260502051325 | 55 | 0 | 0.0 | 0.0 | 0.00 | 1.51 | 0.00 | 1 | 1018.3 |
| 20260502051204 | 55 | 0 | 0.0 | 0.0 | 0.00 | 1.51 | 0.00 | 1 | 1018.3 |
| 20260502051104 | 55 | 0 | 0.0 | 0.0 | 0.00 | 1.51 | 0.00 | 1 | 1018.3 |
| 20260502051004 | 55 | 0 | 0.0 | 0.0 | 0.00 | 1.51 | 0.00 | 1 | 1018.3 |
| 20260502050904 | 55 | 0 | 0.0 | 0.0 | 0.00 | 1.51 | 0.00 | 1 | 1018.3 |
| 20260502050804 | 55 | 0 | 0.0 | 0.0 | 0.00 | 1.51 | 0.00 | 1 | 1018.3 |
| 20260502050704 | 55 | 0 | 0.0 | 0.0 | 0.00 | 1.52 | 0.00 | 1 | 1018.3 |
| 20260502050604 | 55 | 0 | 0.0 | 0.0 | 0.00 | 1.52 | 0.00 | 1 | 1018.3 |
| 20260502050504 | 55 | 0 | 0.0 | 0.0 | 0.00 | 1.52 | 0.00 | 1 | 1018.4 |
| 20260502050425 | 55 | 0 | 0.0 | 0.0 | 0.00 | 1.52 | 0.00 | 1 | 1018.4 |
| 20260502050325 | 55 | 0 | 0.0 | 0.0 | 0.00 | 1.52 | 0.00 | 1 | 1018.3 |
| 20260502050205 | 55 | 0 | 0.0 | 0.0 | 0.00 | 1.52 | 0.00 | 1 | 1018.4 |
| 20260502050104 | 55 | 0 | 0.0 | 0.0 | 0.00 | 1.52 | 0.00 | 1 | 1018.4 |
| 20260502050004 | 55 | 0 | 0.0 | 0.0 | 0.00 | 1.52 | 0.00 | 1 | 1018.3 |
| 20260502045904 | 55 | 0 | 0.0 | 0.0 | 0.00 | 1.52 | 1.52 | 1 | 1018.3 |
| 20260502045804 | 55 | 0 | 0.0 | 0.0 | 0.00 | 1.52 | 1.52 | 1 | 1018.3 |
| 20260502045704 | 55 | 0 | 0.0 | 0.0 | 0.00 | 1.52 | 1.52 | 1 | 1018.3 |
| 20260502045604 | 55 | 0 | 0.0 | 0.0 | 0.00 | 1.52 | 1.52 | 1 | 1018.3 |
| 20260502045504 | 55 | 0 | 0.0 | 0.0 | 0.00 | 1.52 | 1.52 | 1 | 1018.3 |
| 20260502045404 | 55 | 0 | 0.0 | 0.0 | 0.00 | 1.52 | 1.52 | 1 | 1018.3 |
| 20260502045306 | 55 | 0 | 0.0 | 0.0 | 0.00 | 1.52 | 1.52 | 1 | 1018.3 |
| 20260502045204 | 55 | 0 | 0.0 | 0.0 | 0.00 | 1.52 | 1.52 | 1 | 1018.3 |
| 20260502045125 | 55 | 0 | 0.0 | 0.0 | 0.00 | 1.52 | 1.52 | 1 | 1018.3 |
| 20260502045004 | 55 | 0 | 0.0 | 0.0 | 0.00 | 1.52 | 1.52 | 1 | 1018.3 |
| 20260502044904 | 55 | 0 | 0.0 | 0.0 | 0.00 | 1.52 | 1.52 | 1 | 1018.3 |
| 20260502044825 | 55 | 0 | 0.0 | 0.0 | 0.00 | 1.52 | 1.52 | 1 | 1018.3 |
| 20260502044705 | 55 | 0 | 0.0 | 0.0 | 0.00 | 1.52 | 1.52 | 1 | 1018.3 |
| 20260502044604 | 55 | 0 | 0.0 | 0.0 | 0.00 | 1.52 | 1.52 | 1 | 1018.3 |
| 20260502044504 | 55 | 0 | 0.0 | 0.0 | 0.00 | 1.52 | 1.52 | 1 | 1018.2 |
| 20260502044404 | 55 | 0 | 0.0 | 0.0 | 0.00 | 1.52 | 1.52 | 1 | 1018.2 |
| 20260502044325 | 55 | 0 | 0.0 | 0.0 | 0.00 | 1.52 | 1.52 | 1 | 1018.2 |
| 20260502044204 | 55 | 0 | 0.0 | 0.0 | 0.00 | 1.52 | 1.52 | 1 | 1018.2 |
| 20260502044125 | 55 | 0 | 0.0 | 0.0 | 0.00 | 1.52 | 1.52 | 1 | 1018.2 |
| 20260502044025 | 55 | 0 | 0.0 | 0.0 | 0.00 | 1.52 | 1.52 | 1 | 1018.2 |
| 20260502043904 | 55 | 0 | 0.0 | 0.0 | 0.00 | 1.52 | 1.52 | 1 | 1018.2 |
| 20260502043804 | 55 | 0 | 0.0 | 0.0 | 0.00 | 1.52 | 1.52 | 1 | 1018.2 |
| 20260502043704 | 55 | 0 | 0.0 | 0.0 | 0.00 | 1.52 | 1.52 | 1 | 1018.2 |
| 20260502043604 | 55 | 0 | 0.0 | 0.0 | 0.00 | 1.52 | 1.52 | 1 | 1018.3 |
| 20260502043504 | 55 | 0 | 0.0 | 0.0 | 0.00 | 1.52 | 1.52 | 1 | 1018.3 |
| 20260502043404 | 55 | 0 | 0.0 | 0.0 | 0.00 | 1.52 | 1.52 | 1 | 1018.2 |
| 20260502043325 | 55 | 0 | 0.0 | 0.0 | 0.00 | 1.52 | 1.52 | 1 | 1018.2 |
| 20260502043225 | 55 | 0 | 0.0 | 0.0 | 0.00 | 1.52 | 1.52 | 1 | 1018.2 |
| 20260502043104 | 55 | 0 | 0.0 | 0.0 | 0.00 | 1.52 | 1.52 | 1 | 1018.2 |
| 20260502043004 | 55 | 0 | 0.0 | 0.0 | 0.00 | 1.52 | 1.52 | 1 | 1018.2 |
| 20260502042904 | 55 | 0 | 0.0 | 0.0 | 0.00 | 1.52 | 1.52 | 1 | 1018.2 |
| 20260502042805 | 55 | 0 | 0.0 | 0.0 | 0.00 | 1.52 | 1.52 | 1 | 1018.2 |
| 20260502042704 | 56 | 0 | 0.0 | 0.0 | 0.00 | 1.52 | 1.52 | 1 | 1018.2 |
| 20260502042604 | 56 | 0 | 0.0 | 0.0 | 0.00 | 1.52 | 1.52 | 1 | 1018.2 |
| 20260502042504 | 56 | 0 | 0.0 | 0.0 | 0.00 | 1.52 | 1.52 | 1 | 1018.3 |
| 20260502042425 | 56 | 0 | 0.0 | 0.0 | 0.00 | 1.52 | 1.52 | 1 | 1018.3 |
| 20260502042306 | 56 | 0 | 0.0 | 0.0 | 0.00 | 1.52 | 1.52 | 1 | 1018.3 |
| 20260502042204 | 56 | 0 | 0.0 | 0.0 | 0.00 | 1.52 | 1.52 | 1 | 1018.3 |
| 20260502042126 | 56 | 0 | 0.0 | 0.0 | 0.00 | 1.52 | 1.52 | 1 | 1018.3 |
| 20260502042025 | 56 | 0 | 0.0 | 0.0 | 0.00 | 1.52 | 1.52 | 1 | 1018.3 |
| 20260502041904 | 56 | 0 | 0.0 | 0.0 | 0.00 | 1.52 | 1.52 | 1 | 1018.3 |
| 20260502041804 | 56 | 0 | 0.0 | 0.0 | 0.00 | 1.52 | 1.52 | 1 | 1018.3 |
| 20260502041704 | 56 | 0 | 0.0 | 0.0 | 0.00 | 1.52 | 1.52 | 1 | 1018.3 |
| 20260502041604 | 56 | 0 | 0.0 | 0.0 | 0.00 | 1.52 | 1.52 | 1 | 1018.3 |
| 20260502041504 | 56 | 0 | 0.0 | 0.0 | 0.00 | 1.52 | 1.52 | 1 | 1018.3 |
| 20260502041404 | 56 | 0 | 0.0 | 0.0 | 0.00 | 1.52 | 1.52 | 1 | 1018.4 |
| 20260502041304 | 56 | 0 | 0.0 | 0.0 | 0.00 | 1.52 | 1.52 | 1 | 1018.4 |
| 20260502041204 | 56 | 0 | 0.0 | 0.0 | 0.00 | 1.52 | 1.52 | 1 | 1018.4 |
| 20260502041125 | 56 | 0 | 0.0 | 0.0 | 0.00 | 1.52 | 1.52 | 1 | 1018.4 |
| 20260502041004 | 56 | 0 | 0.0 | 0.0 | 0.00 | 1.52 | 1.52 | 1 | 1018.4 |
| 20260502040904 | 56 | 0 | 0.0 | 0.0 | 0.00 | 1.52 | 1.52 | 1 | 1018.4 |
| 20260502040825 | 56 | 0 | 0.0 | 0.0 | 0.00 | 1.52 | 1.52 | 1 | 1018.4 |
| 20260502040704 | 56 | 0 | 0.0 | 0.0 | 0.00 | 1.52 | 1.52 | 1 | 1018.4 |
| 20260502040604 | 56 | 0 | 0.0 | 0.0 | 0.00 | 1.52 | 1.52 | 1 | 1018.4 |
| 20260502040504 | 56 | 0 | 0.0 | 0.0 | 0.00 | 1.52 | 1.52 | 1 | 1018.4 |
| 20260502040404 | 56 | 211 | 0.0 | 0.9 | 0.00 | 1.52 | 1.52 | 1 | 1018.4 |
| 20260502040304 | 56 | 211 | 0.0 | 0.9 | 0.00 | 1.52 | 1.52 | 1 | 1018.4 |
| 20260502040204 | 56 | 211 | 0.0 | 0.9 | 0.00 | 1.52 | 1.52 | 1 | 1018.4 |
| 20260502040104 | 56 | 211 | 0.0 | 0.9 | 0.00 | 1.52 | 1.52 | 1 | 1018.4 |
| 20260502040004 | 56 | 211 | 0.0 | 0.9 | 0.00 | 1.52 | 1.52 | 1 | 1018.3 |
| 20260502035904 | 56 | 211 | 0.0 | 0.9 | 0.00 | 1.52 | 1.52 | 1 | 1018.3 |
| 20260502035804 | 56 | 211 | 0.0 | 0.9 | 0.00 | 1.52 | 1.52 | 1 | 1018.3 |
| 20260502035704 | 56 | 211 | 0.0 | 0.9 | 0.00 | 1.52 | 1.52 | 1 | 1018.3 |
| 20260502035604 | 56 | 203 | 0.0 | 0.9 | 0.00 | 1.52 | 1.52 | 1 | 1018.3 |
| 20260502035504 | 56 | 203 | 0.0 | 0.9 | 0.00 | 1.52 | 1.52 | 1 | 1018.3 |
| 20260502035404 | 56 | 197 | 0.0 | 0.9 | 0.00 | 1.52 | 1.52 | 1 | 1018.3 |
| 20260502035306 | 56 | 197 | 0.0 | 0.9 | 0.00 | 1.52 | 1.52 | 1 | 1018.4 |
| 20260502035225 | 56 | 197 | 0.0 | 0.9 | 0.00 | 1.52 | 1.52 | 1 | 1018.4 |
| 20260502035104 | 56 | 197 | 0.0 | 0.9 | 0.00 | 1.52 | 1.52 | 1 | 1018.4 |
| 20260502035025 | 56 | 197 | 0.0 | 0.9 | 0.00 | 1.52 | 1.52 | 1 | 1018.4 |
| 20260502034925 | 56 | 197 | 0.0 | 0.9 | 0.00 | 1.52 | 1.52 | 1 | 1018.4 |
| 20260502034804 | 56 | 197 | 0.0 | 0.9 | 0.00 | 1.52 | 1.52 | 1 | 1018.4 |
| 20260502034725 | 56 | 197 | 0.0 | 0.9 | 0.00 | 1.52 | 1.52 | 1 | 1018.4 |
| 20260502034604 | 56 | 0 | 0.0 | 0.0 | 0.00 | 1.52 | 1.52 | 1 | 1018.3 |
| 20260502034504 | 56 | 0 | 0.0 | 0.0 | 0.00 | 1.52 | 1.52 | 1 | 1018.4 |
| 20260502034425 | 56 | 0 | 0.0 | 0.0 | 0.00 | 1.52 | 1.52 | 1 | 1018.3 |
| 20260502034304 | 56 | 0 | 0.0 | 0.0 | 0.00 | 1.52 | 1.52 | 1 | 1018.3 |
| 20260502034204 | 56 | 0 | 0.0 | 0.0 | 0.00 | 1.52 | 1.52 | 1 | 1018.3 |
| 20260502034104 | 56 | 0 | 0.0 | 0.0 | 0.00 | 1.52 | 1.52 | 1 | 1018.2 |
| 20260502034025 | 56 | 0 | 0.0 | 0.0 | 0.00 | 1.52 | 1.52 | 1 | 1018.2 |
| 20260502033904 | 56 | 0 | 0.0 | 0.0 | 0.00 | 1.52 | 1.52 | 1 | 1018.3 |
| 20260502033825 | 56 | 0 | 0.0 | 0.0 | 0.00 | 1.52 | 1.52 | 1 | 1018.3 |
| 20260502033725 | 56 | 218 | 0.0 | 1.7 | 0.00 | 1.52 | 1.52 | 1 | 1018.2 |
| 20260502033604 | 56 | 218 | 0.0 | 1.7 | 0.00 | 1.52 | 1.52 | 1 | 1018.3 |
| 20260502033504 | 56 | 218 | 0.0 | 1.7 | 0.00 | 1.52 | 1.52 | 1 | 1018.3 |
| 20260502033404 | 56 | 218 | 0.0 | 1.7 | 0.00 | 1.52 | 1.52 | 1 | 1018.2 |
| 20260502033304 | 56 | 218 | 0.0 | 1.7 | 0.00 | 1.52 | 1.52 | 1 | 1018.3 |
| 20260502033204 | 56 | 218 | 0.0 | 1.7 | 0.00 | 1.52 | 1.52 | 1 | 1018.3 |
| 20260502033104 | 56 | 218 | 0.0 | 1.7 | 0.00 | 1.52 | 1.52 | 1 | 1018.3 |
| 20260502033004 | 56 | 218 | 0.0 | 1.7 | 0.00 | 1.52 | 1.52 | 1 | 1018.3 |
| 20260502032925 | 56 | 218 | 0.0 | 1.7 | 0.00 | 1.52 | 1.52 | 1 | 1018.3 |
| 20260502032825 | 56 | 218 | 0.0 | 1.7 | 0.00 | 1.52 | 1.52 | 1 | 1018.3 |
| 20260502032704 | 56 | 0 | 0.0 | 0.9 | 0.00 | 1.52 | 1.52 | 1 | 1018.4 |
| 20260502032604 | 56 | 0 | 0.0 | 0.9 | 0.00 | 1.52 | 1.52 | 1 | 1018.3 |
| 20260502032525 | 56 | 0 | 0.0 | 0.9 | 0.00 | 1.52 | 1.52 | 1 | 1018.2 |
| 20260502032425 | 56 | 0 | 0.0 | 0.9 | 0.00 | 1.52 | 1.52 | 1 | 1018.2 |
| 20260502032306 | 56 | 0 | 0.0 | 0.9 | 0.00 | 1.52 | 1.52 | 1 | 1018.3 |
| 20260502032204 | 56 | 0 | 0.0 | 0.9 | 0.00 | 1.52 | 1.52 | 1 | 1018.2 |
| 20260502032125 | 56 | 0 | 0.0 | 0.9 | 0.00 | 1.52 | 1.52 | 1 | 1018.2 |
| 20260502032025 | 56 | 0 | 0.0 | 0.9 | 0.00 | 1.52 | 1.52 | 1 | 1018.2 |
| 20260502031904 | 56 | 0 | 0.0 | 0.9 | 0.00 | 1.52 | 1.52 | 1 | 1018.2 |
| 20260502031825 | 56 | 0 | 0.0 | 0.9 | 0.00 | 1.52 | 1.52 | 1 | 1018.1 |
| 20260502031704 | 56 | 198 | 0.0 | 1.7 | 0.00 | 1.52 | 1.52 | 1 | 1018.1 |
| 20260502031604 | 56 | 206 | 0.0 | 1.7 | 0.00 | 1.52 | 1.52 | 1 | 1018.1 |
| 20260502031504 | 56 | 206 | 0.0 | 1.7 | 0.00 | 1.52 | 1.52 | 1 | 1018.1 |
| 20260502031404 | 56 | 206 | 0.0 | 1.7 | 0.00 | 1.52 | 1.52 | 1 | 1018.1 |
| 20260502031304 | 56 | 206 | 0.0 | 1.7 | 0.00 | 1.52 | 1.52 | 1 | 1018.1 |
| 20260502031204 | 56 | 213 | 0.0 | 3.5 | 0.00 | 1.52 | 1.52 | 1 | 1018.1 |
| 20260502031125 | 56 | 213 | 0.0 | 3.5 | 0.00 | 1.52 | 1.52 | 1 | 1018.1 |
| 20260502031004 | 56 | 204 | 0.0 | 3.5 | 0.00 | 1.52 | 1.52 | 1 | 1018.0 |
| 20260502030904 | 56 | 204 | 0.0 | 3.5 | 0.00 | 1.52 | 1.52 | 1 | 1018.0 |
| 20260502030804 | 56 | 205 | 0.0 | 3.5 | 0.00 | 1.52 | 1.52 | 1 | 1018.0 |
| 20260502030704 | 56 | 205 | 0.0 | 3.5 | 0.00 | 1.52 | 1.52 | 1 | 1018.0 |
| 20260502030604 | 56 | 196 | 0.0 | 3.5 | 0.00 | 1.52 | 1.52 | 1 | 1018.0 |
| 20260502030504 | 56 | 193 | 0.0 | 3.5 | 0.00 | 1.52 | 1.52 | 1 | 1018.0 |
| 20260502030404 | 56 | 193 | 0.0 | 3.5 | 0.00 | 1.52 | 1.52 | 1 | 1018.0 |
| 20260502030304 | 56 | 193 | 0.0 | 3.5 | 0.00 | 1.52 | 1.52 | 1 | 1017.9 |
| 20260502030204 | 56 | 175 | 0.0 | 3.5 | 0.00 | 1.52 | 1.52 | 1 | 1017.9 |
| 20260502030104 | 56 | 175 | 0.0 | 3.5 | 0.00 | 1.53 | 1.52 | 1 | 1018.0 |
| 20260502030004 | 56 | 177 | 0.0 | 3.5 | 0.00 | 1.53 | 1.52 | 1 | 1018.0 |
| 20260502025904 | 56 | 177 | 0.0 | 3.5 | 0.00 | 1.53 | 1.52 | 1 | 1018.0 |
| 20260502025804 | 56 | 179 | 0.0 | 3.5 | 0.00 | 1.53 | 1.52 | 1 | 1018.0 |
| 20260502025725 | 56 | 178 | 0.0 | 3.5 | 0.00 | 1.53 | 1.52 | 1 | 1017.9 |
| 20260502025604 | 56 | 178 | 0.0 | 3.5 | 0.00 | 1.53 | 1.52 | 1 | 1017.9 |
| 20260502025504 | 56 | 182 | 0.0 | 2.6 | 0.00 | 1.53 | 1.52 | 1 | 1017.9 |
| 20260502025425 | 56 | 182 | 0.0 | 2.6 | 0.00 | 1.53 | 1.52 | 1 | 1018.0 |
| 20260502025306 | 56 | 190 | 0.0 | 2.6 | 0.00 | 1.53 | 1.52 | 1 | 1017.9 |
| 20260502025204 | 56 | 191 | 0.0 | 2.6 | 0.00 | 1.53 | 1.52 | 1 | 1017.9 |
| 20260502025125 | 56 | 194 | 0.0 | 2.6 | 0.00 | 1.54 | 1.52 | 1 | 1017.8 |
| 20260502025004 | 56 | 199 | 0.0 | 2.6 | 0.00 | 1.54 | 1.52 | 1 | 1017.8 |
| 20260502024904 | 56 | 200 | 0.0 | 3.5 | 0.00 | 1.54 | 1.52 | 1 | 1017.8 |
| 20260502024825 | 56 | 200 | 0.0 | 3.5 | 0.00 | 1.54 | 1.52 | 1 | 1017.8 |
| 20260502024704 | 56 | 200 | 0.0 | 3.5 | 0.00 | 1.54 | 1.52 | 1 | 1017.7 |
| 20260502024604 | 56 | 201 | 0.9 | 7.0 | 0.00 | 1.54 | 1.52 | 1 | 1017.7 |
| 20260502024504 | 56 | 198 | 0.9 | 7.0 | 0.00 | 1.55 | 1.52 | 1 | 1017.7 |
| 20260502024405 | 56 | 198 | 0.9 | 7.0 | 0.00 | 1.55 | 1.52 | 1 | 1017.7 |
| 20260502024304 | 56 | 197 | 0.9 | 7.0 | 0.00 | 1.55 | 1.52 | 1 | 1017.5 |
| 20260502024204 | 56 | 198 | 0.9 | 7.0 | 0.00 | 1.56 | 1.52 | 1 | 1017.6 |
| 20260502024104 | 56 | 200 | 0.9 | 7.0 | 0.00 | 1.56 | 1.52 | 1 | 1017.5 |
| 20260502024025 | 56 | 198 | 0.9 | 7.0 | 0.00 | 1.56 | 1.52 | 1 | 1017.5 |
| 20260502023904 | 56 | 196 | 0.9 | 7.0 | 0.00 | 1.56 | 1.52 | 1 | 1017.5 |
| 20260502023825 | 56 | 196 | 0.0 | 7.0 | 0.00 | 1.56 | 1.52 | 1 | 1017.4 |
| 20260502023704 | 56 | 199 | 0.0 | 7.0 | 0.00 | 1.56 | 1.52 | 1 | 1017.4 |
| 20260502023604 | 55 | 205 | 0.0 | 6.1 | 0.00 | 1.56 | 1.52 | 1 | 1017.4 |
| 20260502023504 | 56 | 220 | 0.0 | 6.1 | 0.00 | 1.56 | 1.52 | 1 | 1017.3 |
| 20260502023404 | 56 | 219 | 0.0 | 6.1 | 0.00 | 1.56 | 1.52 | 1 | 1017.3 |
| 20260502023304 | 55 | 217 | 0.9 | 6.1 | 0.00 | 1.56 | 1.52 | 1 | 1017.3 |
| 20260502023205 | 55 | 212 | 0.9 | 10.4 | 0.00 | 1.56 | 1.52 | 1 | 1017.3 |
| 20260502023104 | 55 | 205 | 1.7 | 10.4 | 0.00 | 1.56 | 1.52 | 1 | 1017.2 |
| 20260502023004 | 55 | 205 | 1.7 | 10.4 | 0.00 | 1.56 | 1.52 | 1 | 1017.3 |
| 20260502022904 | 55 | 207 | 2.6 | 10.4 | 0.00 | 1.56 | 1.52 | 1 | 1017.2 |
| 20260502022804 | 55 | 208 | 3.5 | 13.0 | 0.00 | 1.56 | 1.52 | 1 | 1017.2 |
| 20260502022725 | 55 | 206 | 4.3 | 13.0 | 0.00 | 1.56 | 1.52 | 1 | 1017.2 |
| 20260502022604 | 55 | 204 | 5.2 | 13.0 | 0.00 | 1.56 | 1.52 | 1 | 1017.2 |
| 20260502022525 | 55 | 204 | 5.2 | 13.0 | 0.00 | 1.56 | 1.52 | 1 | 1017.2 |
| 20260502022404 | 55 | 204 | 5.2 | 13.0 | 0.00 | 1.56 | 1.52 | 1 | 1017.1 |
| 20260502022325 | 55 | 202 | 6.1 | 13.0 | 0.00 | 1.56 | 1.52 | 1 | 1017.1 |
| 20260502022225 | 55 | 200 | 6.1 | 13.0 | 0.00 | 1.56 | 1.52 | 1 | 1017.1 |
| 20260502022104 | 55 | 198 | 6.1 | 13.0 | 0.00 | 1.56 | 1.52 | 1 | 1017.1 |
| 20260502022004 | 55 | 199 | 6.1 | 14.8 | 0.00 | 1.56 | 1.52 | 1 | 1017.1 |
| 20260502021904 | 55 | 196 | 6.1 | 14.8 | 0.00 | 1.56 | 1.52 | 1 | 1017.1 |
| 20260502021804 | 55 | 194 | 6.1 | 14.8 | 0.00 | 1.56 | 1.52 | 1 | 1017.1 |
| 20260502021704 | 55 | 191 | 6.1 | 14.8 | 0.00 | 1.56 | 1.52 | 1 | 1017.1 |
| 20260502021604 | 55 | 190 | 6.1 | 14.8 | 0.00 | 1.56 | 1.52 | 1 | 1017.0 |
| 20260502021504 | 55 | 188 | 6.1 | 14.8 | 0.00 | 1.56 | 1.52 | 1 | 1017.1 |
| 20260502021404 | 55 | 188 | 7.0 | 14.8 | 0.00 | 1.56 | 1.52 | 1 | 1017.0 |
| 20260502021304 | 55 | 189 | 7.0 | 14.8 | 0.00 | 1.56 | 1.52 | 1 | 1017.0 |
| 20260502021225 | 55 | 189 | 7.0 | 14.8 | 0.00 | 1.56 | 1.52 | 1 | 1017.0 |
| 20260502021125 | 55 | 190 | 7.0 | 14.8 | 0.00 | 1.56 | 1.52 | 1 | 1017.0 |
| 20260502021004 | 55 | 189 | 6.1 | 11.3 | 0.00 | 1.56 | 1.52 | 1 | 1016.9 |
| 20260502020904 | 55 | 190 | 6.1 | 11.3 | 0.00 | 1.56 | 1.52 | 1 | 1017.0 |
| 20260502020804 | 55 | 189 | 5.2 | 11.3 | 0.00 | 1.56 | 1.52 | 1 | 1016.9 |
| 20260502020704 | 55 | 193 | 5.2 | 11.3 | 0.00 | 1.56 | 1.52 | 1 | 1016.9 |
| 20260502020604 | 55 | 195 | 6.1 | 12.2 | 0.00 | 1.56 | 1.52 | 1 | 1016.9 |
| 20260502020504 | 55 | 196 | 5.2 | 12.2 | 0.00 | 1.56 | 1.52 | 1 | 1016.8 |
| 20260502020404 | 55 | 198 | 5.2 | 12.2 | 0.00 | 1.56 | 1.52 | 1 | 1016.8 |
| 20260502020304 | 55 | 198 | 5.2 | 12.2 | 0.00 | 1.56 | 1.52 | 1 | 1016.8 |
| 20260502020204 | 55 | 199 | 5.2 | 12.2 | 0.00 | 1.56 | 1.52 | 1 | 1016.8 |
| 20260502020125 | 55 | 198 | 5.2 | 12.2 | 0.00 | 1.56 | 1.52 | 1 | 1016.8 |
| 20260502020025 | 55 | 195 | 6.1 | 12.2 | 0.00 | 1.56 | 1.52 | 1 | 1016.7 |
| 20260502015904 | 55 | 194 | 6.1 | 12.2 | 0.00 | 1.56 | 1.52 | 1 | 1016.7 |
| 20260502015804 | 55 | 195 | 6.1 | 12.2 | 0.00 | 1.56 | 1.52 | 1 | 1016.7 |
| 20260502015704 | 54 | 193 | 6.1 | 12.2 | 0.00 | 1.56 | 1.52 | 1 | 1016.7 |
| 20260502015604 | 54 | 191 | 6.1 | 12.2 | 0.00 | 1.56 | 1.52 | 1 | 1016.7 |
| 20260502015504 | 54 | 192 | 6.1 | 12.2 | 0.00 | 1.56 | 1.52 | 1 | 1016.7 |
| 20260502015425 | 54 | 193 | 6.1 | 12.2 | 0.00 | 1.56 | 1.52 | 1 | 1016.7 |
| 20260502015305 | 54 | 195 | 6.1 | 12.2 | 0.00 | 1.56 | 1.52 | 1 | 1016.7 |
| 20260502015204 | 54 | 194 | 6.1 | 12.2 | 0.00 | 1.56 | 1.52 | 1 | 1016.6 |
| 20260502015125 | 54 | 194 | 5.2 | 12.2 | 0.00 | 1.56 | 1.52 | 1 | 1016.6 |
| 20260502015004 | 54 | 196 | 5.2 | 10.4 | 0.00 | 1.56 | 1.52 | 1 | 1016.5 |
| 20260502014904 | 54 | 196 | 5.2 | 9.6 | 0.00 | 1.56 | 1.52 | 1 | 1016.5 |
| 20260502014805 | 54 | 197 | 5.2 | 9.6 | 0.00 | 1.56 | 1.52 | 1 | 1016.5 |
| 20260502014705 | 54 | 198 | 5.2 | 9.6 | 0.00 | 1.56 | 1.52 | 1 | 1016.5 |
| 20260502014604 | 54 | 200 | 5.2 | 9.6 | 0.00 | 1.56 | 1.52 | 1 | 1016.4 |
| 20260502014504 | 54 | 200 | 5.2 | 9.6 | 0.00 | 1.56 | 1.52 | 1 | 1016.5 |
| 20260502014404 | 54 | 199 | 5.2 | 13.0 | 0.00 | 1.56 | 1.52 | 1 | 1016.4 |
| 20260502014304 | 54 | 197 | 5.2 | 13.0 | 0.00 | 1.56 | 1.52 | 1 | 1016.5 |
| 20260502014204 | 54 | 198 | 5.2 | 13.0 | 0.00 | 1.56 | 1.52 | 1 | 1016.4 |
| 20260502014125 | 54 | 199 | 6.1 | 13.0 | 0.00 | 1.56 | 1.52 | 1 | 1016.4 |
| 20260502014004 | 54 | 203 | 6.1 | 13.0 | 0.00 | 1.56 | 1.52 | 1 | 1016.5 |
| 20260502013925 | 54 | 203 | 6.1 | 13.0 | 0.00 | 1.56 | 1.52 | 1 | 1016.4 |
| 20260502013804 | 54 | 205 | 6.1 | 13.0 | 0.00 | 1.56 | 1.52 | 1 | 1016.5 |
| 20260502013704 | 54 | 207 | 7.0 | 13.0 | 0.00 | 1.56 | 1.52 | 1 | 1016.4 |
| 20260502013604 | 54 | 205 | 7.0 | 13.0 | 0.00 | 1.56 | 1.52 | 1 | 1016.4 |
| 20260502013504 | 54 | 205 | 7.0 | 13.0 | 0.00 | 1.56 | 1.52 | 1 | 1016.4 |
| 20260502013404 | 54 | 204 | 6.1 | 12.2 | 0.00 | 1.56 | 1.52 | 1 | 1016.4 |
| 20260502013304 | 54 | 205 | 6.1 | 11.3 | 0.00 | 1.56 | 1.52 | 1 | 1016.4 |
| 20260502013204 | 54 | 204 | 6.1 | 11.3 | 0.00 | 1.56 | 1.52 | 1 | 1016.4 |
| 20260502013104 | 54 | 203 | 6.1 | 13.0 | 0.00 | 1.56 | 1.52 | 1 | 1016.3 |
| 20260502013004 | 54 | 201 | 5.2 | 13.0 | 0.00 | 1.56 | 1.52 | 1 | 1016.3 |
| 20260502012904 | 53 | 202 | 5.2 | 13.0 | 0.00 | 1.56 | 1.52 | 1 | 1016.3 |
| 20260502012804 | 53 | 202 | 4.3 | 13.0 | 0.00 | 1.56 | 1.52 | 1 | 1016.3 |
| 20260502012704 | 53 | 199 | 3.5 | 13.0 | 0.00 | 1.56 | 1.52 | 1 | 1016.3 |
| 20260502012625 | 53 | 198 | 3.5 | 13.0 | 0.00 | 1.56 | 1.52 | 1 | 1016.3 |
| 20260502012525 | 53 | 196 | 3.5 | 13.9 | 0.00 | 1.56 | 1.52 | 1 | 1016.3 |
| 20260502012404 | 53 | 195 | 2.6 | 13.9 | 0.00 | 1.56 | 1.52 | 1 | 1016.3 |
| 20260502012306 | 53 | 197 | 2.6 | 13.9 | 0.00 | 1.56 | 1.52 | 1 | 1016.3 |
| 20260502012204 | 53 | 200 | 3.5 | 13.9 | 0.00 | 1.56 | 1.52 | 1 | 1016.3 |
| 20260502012104 | 53 | 194 | 3.5 | 13.9 | 0.00 | 1.56 | 1.52 | 1 | 1016.3 |
| 20260502012004 | 53 | 196 | 4.3 | 13.9 | 0.00 | 1.56 | 1.52 | 1 | 1016.3 |
| 20260502011904 | 53 | 196 | 4.3 | 13.9 | 0.00 | 1.56 | 1.52 | 1 | 1016.2 |
| 20260502011804 | 53 | 196 | 5.2 | 13.9 | 0.00 | 1.56 | 1.52 | 1 | 1016.2 |
| 20260502011704 | 53 | 196 | 6.1 | 13.9 | 0.00 | 1.56 | 1.52 | 1 | 1016.2 |
| 20260502011604 | 53 | 196 | 6.1 | 13.9 | 0.00 | 1.56 | 1.52 | 1 | 1016.2 |
| 20260502011504 | 53 | 197 | 6.1 | 13.0 | 0.00 | 1.56 | 1.52 | 1 | 1016.1 |
| 20260502011404 | 53 | 198 | 7.0 | 13.0 | 0.00 | 1.56 | 1.52 | 1 | 1016.1 |
| 20260502011304 | 53 | 199 | 7.8 | 13.0 | 0.00 | 1.56 | 1.52 | 1 | 1016.1 |
| 20260502011204 | 53 | 198 | 7.0 | 13.0 | 0.01 | 1.56 | 1.52 | 1 | 1016.0 |
| 20260502011105 | 53 | 199 | 7.0 | 13.0 | 0.01 | 1.56 | 1.52 | 1 | 1016.0 |
| 20260502011004 | 53 | 199 | 6.1 | 13.0 | 0.01 | 1.56 | 1.52 | 1 | 1016.0 |
| 20260502010904 | 53 | 199 | 6.1 | 13.0 | 0.01 | 1.56 | 1.52 | 1 | 1016.0 |
| 20260502010804 | 53 | 200 | 6.1 | 13.0 | 0.01 | 1.56 | 1.52 | 1 | 1015.9 |
| 20260502010704 | 53 | 201 | 6.1 | 13.9 | 0.01 | 1.56 | 1.52 | 1 | 1015.9 |
| 20260502010604 | 53 | 200 | 6.1 | 13.9 | 0.01 | 1.56 | 1.52 | 1 | 1015.9 |
| 20260502010504 | 53 | 201 | 6.1 | 13.9 | 0.01 | 1.56 | 1.52 | 1 | 1015.8 |
| 20260502010404 | 53 | 201 | 5.2 | 13.9 | 0.01 | 1.56 | 1.52 | 1 | 1015.8 |
| 20260502010304 | 54 | 198 | 5.2 | 13.9 | 0.01 | 1.56 | 1.52 | 1 | 1015.8 |
| 20260502010225 | 54 | 197 | 5.2 | 13.9 | 0.01 | 1.56 | 1.52 | 1 | 1015.7 |
| 20260502010125 | 54 | 198 | 6.1 | 13.9 | 0.01 | 1.56 | 1.52 | 1 | 1015.8 |
| 20260502010025 | 54 | 196 | 7.0 | 13.9 | 0.01 | 1.56 | 1.52 | 1 | 1015.7 |
| 20260502005904 | 54 | 195 | 7.0 | 13.9 | 0.02 | 1.56 | 1.52 | 1 | 1015.8 |
| 20260502005804 | 54 | 194 | 7.0 | 13.9 | 0.02 | 1.56 | 1.52 | 1 | 1015.8 |
| 20260502005704 | 54 | 189 | 7.0 | 13.0 | 0.02 | 1.56 | 1.52 | 1 | 1015.7 |
| 20260502005604 | 54 | 189 | 7.0 | 13.0 | 0.02 | 1.56 | 1.52 | 1 | 1015.7 |
| 20260502005504 | 54 | 189 | 7.0 | 13.0 | 0.02 | 1.56 | 1.52 | 1 | 1015.8 |
| 20260502005404 | 54 | 188 | 7.0 | 13.0 | 0.02 | 1.56 | 1.52 | 1 | 1015.7 |
| 20260502005306 | 54 | 187 | 7.8 | 13.0 | 0.02 | 1.56 | 1.52 | 1 | 1015.7 |
| 20260502005204 | 54 | 187 | 7.8 | 13.0 | 0.02 | 1.56 | 1.52 | 1 | 1015.7 |
| 20260502005104 | 54 | 188 | 7.8 | 13.0 | 0.02 | 1.56 | 1.52 | 1 | 1015.6 |
| 20260502005004 | 54 | 187 | 7.0 | 13.0 | 0.02 | 1.56 | 1.52 | 1 | 1015.7 |
| 20260502004904 | 54 | 187 | 6.1 | 13.0 | 0.02 | 1.56 | 1.52 | 1 | 1015.7 |
| 20260502004804 | 54 | 187 | 5.2 | 13.0 | 0.02 | 1.56 | 1.52 | 1 | 1015.6 |
| 20260502004704 | 54 | 189 | 5.2 | 13.0 | 0.02 | 1.56 | 1.52 | 1 | 1015.7 |
| 20260502004604 | 54 | 189 | 4.3 | 13.0 | 0.02 | 1.56 | 1.52 | 1 | 1015.6 |
| 20260502004504 | 54 | 188 | 4.3 | 13.0 | 0.02 | 1.56 | 1.52 | 1 | 1015.6 |
| 20260502004404 | 54 | 187 | 4.3 | 12.2 | 0.02 | 1.56 | 1.52 | 1 | 1015.5 |
| 20260502004304 | 54 | 192 | 3.5 | 15.6 | 0.02 | 1.56 | 1.52 | 1 | 1015.6 |
| 20260502004204 | 54 | 191 | 3.5 | 15.6 | 0.02 | 1.56 | 1.52 | 1 | 1015.5 |
| 20260502004104 | 54 | 191 | 4.3 | 15.6 | 0.02 | 1.56 | 1.52 | 1 | 1015.4 |
| 20260502004004 | 54 | 196 | 5.2 | 15.6 | 0.02 | 1.56 | 1.52 | 1 | 1015.5 |
| 20260502003904 | 54 | 194 | 5.2 | 15.6 | 0.02 | 1.56 | 1.52 | 1 | 1015.5 |
| 20260502003804 | 54 | 195 | 6.1 | 15.6 | 0.02 | 1.56 | 1.52 | 1 | 1015.4 |
| 20260502003704 | 54 | 195 | 6.1 | 15.6 | 0.02 | 1.56 | 1.52 | 1 | 1015.5 |
| 20260502003625 | 54 | 195 | 7.0 | 15.6 | 0.02 | 1.56 | 1.52 | 1 | 1015.4 |
| 20260502003525 | 54 | 196 | 7.0 | 15.6 | 0.02 | 1.56 | 1.52 | 1 | 1015.4 |
| 20260502003404 | 54 | 198 | 7.0 | 15.6 | 0.02 | 1.56 | 1.52 | 1 | 1015.4 |
| 20260502003325 | 54 | 196 | 7.0 | 13.9 | 0.02 | 1.56 | 1.52 | 1 | 1015.3 |
| 20260502003204 | 54 | 198 | 6.1 | 13.9 | 0.02 | 1.56 | 1.52 | 1 | 1015.3 |
| 20260502003104 | 54 | 197 | 7.0 | 13.9 | 0.02 | 1.56 | 1.52 | 1 | 1015.3 |
| 20260502003004 | 54 | 191 | 7.0 | 13.9 | 0.02 | 1.56 | 1.52 | 1 | 1015.3 |
| 20260502002925 | 54 | 191 | 7.0 | 13.9 | 0.02 | 1.56 | 1.52 | 1 | 1015.2 |
| 20260502002804 | 54 | 191 | 7.0 | 13.9 | 0.02 | 1.56 | 1.52 | 1 | 1015.3 |
| 20260502002704 | 54 | 193 | 7.0 | 13.9 | 0.02 | 1.56 | 1.52 | 1 | 1015.2 |
| 20260502002604 | 54 | 191 | 7.0 | 13.9 | 0.02 | 1.56 | 1.52 | 1 | 1015.2 |
| 20260502002525 | 54 | 191 | 6.1 | 13.9 | 0.02 | 1.56 | 1.52 | 1 | 1015.3 |
| 20260502002404 | 54 | 191 | 6.1 | 14.8 | 0.02 | 1.56 | 1.52 | 1 | 1015.2 |
| 20260502002305 | 54 | 190 | 6.1 | 14.8 | 0.02 | 1.56 | 1.52 | 1 | 1015.2 |
| 20260502002204 | 54 | 190 | 5.2 | 14.8 | 0.02 | 1.56 | 1.52 | 1 | 1015.3 |
| 20260502002104 | 54 | 188 | 5.2 | 14.8 | 0.02 | 1.56 | 1.52 | 1 | 1015.1 |
| 20260502002004 | 54 | 193 | 4.3 | 14.8 | 0.02 | 1.56 | 1.52 | 1 | 1015.1 |
| 20260502001904 | 54 | 193 | 4.3 | 14.8 | 0.02 | 1.56 | 1.52 | 1 | 1015.1 |
| 20260502001804 | 54 | 192 | 3.5 | 14.8 | 0.02 | 1.56 | 1.52 | 1 | 1015.1 |
| 20260502001704 | 54 | 191 | 3.5 | 14.8 | 0.02 | 1.56 | 1.52 | 1 | 1015.1 |
| 20260502001625 | 54 | 190 | 2.6 | 14.8 | 0.02 | 1.56 | 1.52 | 1 | 1015.1 |
| 20260502001504 | 54 | 192 | 2.6 | 14.8 | 0.02 | 1.56 | 1.52 | 1 | 1015.0 |
| 20260502001425 | 54 | 192 | 3.5 | 14.8 | 0.02 | 1.56 | 1.52 | 1 | 1015.0 |
| 20260502001304 | 54 | 198 | 3.5 | 14.8 | 0.02 | 1.56 | 1.52 | 1 | 1014.9 |
| 20260502001204 | 54 | 193 | 4.3 | 14.8 | 0.01 | 1.55 | 1.51 | 1 | 1014.8 |
| 20260502001104 | 54 | 197 | 3.5 | 14.8 | 0.01 | 1.55 | 1.51 | 1 | 1014.7 |
| 20260502001004 | 54 | 194 | 4.3 | 14.8 | 0.01 | 1.55 | 1.51 | 1 | 1014.6 |
| 20260502000904 | 54 | 193 | 4.3 | 14.8 | 0.01 | 1.55 | 1.51 | 1 | 1014.6 |
| 20260502000804 | 54 | 193 | 4.3 | 14.8 | 0.01 | 1.55 | 1.51 | 1 | 1014.5 |
| 20260502000704 | 54 | 194 | 5.2 | 14.8 | 0.01 | 1.55 | 1.51 | 1 | 1014.4 |
| 20260502000604 | 54 | 193 | 5.2 | 14.8 | 0.01 | 1.55 | 1.51 | 1 | 1014.4 |
| 20260502000504 | 54 | 192 | 6.1 | 14.8 | 0.01 | 1.55 | 1.51 | 1 | 1014.4 |
| 20260502000404 | 54 | 193 | 6.1 | 12.2 | 0.01 | 1.55 | 1.51 | 1 | 1014.5 |
| 20260502000304 | 54 | 193 | 6.1 | 13.0 | 0.01 | 1.55 | 1.51 | 1 | 1014.5 |
| 20260502000204 | 54 | 196 | 6.1 | 13.0 | 0.01 | 1.55 | 1.51 | 1 | 1014.6 |
| 20260502000104 | 54 | 195 | 6.1 | 13.0 | 0.01 | 1.55 | 1.51 | 1 | 1014.7 |
| 20260502000004 | 54 | 196 | 6.1 | 13.0 | 0.01 | 1.55 | 1.51 | 1 | 1014.8 |
| 20260501235904 | 54 | 197 | 7.0 | 13.0 | 0.00 | 1.54 | 1.50 | 1 | 1014.8 |
| 20260501235804 | 54 | 197 | 7.0 | 13.0 | 0.00 | 1.54 | 1.50 | 1 | 1014.8 |
| 20260501235725 | 54 | 195 | 7.0 | 13.9 | 0.00 | 1.54 | 1.50 | 1 | 1014.9 |
| 20260501235625 | 54 | 195 | 7.0 | 13.9 | 0.00 | 1.54 | 1.50 | 1 | 1014.9 |
| 20260501235504 | 54 | 195 | 7.0 | 13.9 | 0.00 | 1.54 | 1.50 | 1 | 1015.0 |
| 20260501235425 | 54 | 194 | 7.0 | 13.9 | 0.00 | 1.54 | 1.50 | 1 | 1015.0 |
| 20260501235305 | 54 | 192 | 6.1 | 13.9 | 0.00 | 1.54 | 1.50 | 1 | 1015.1 |
| 20260501235204 | 54 | 191 | 6.1 | 13.9 | 0.00 | 1.54 | 1.50 | 1 | 1015.1 |
| 20260501235125 | 54 | 192 | 6.1 | 13.9 | 0.00 | 1.54 | 1.50 | 1 | 1015.2 |
| 20260501235004 | 54 | 191 | 6.1 | 13.9 | 0.00 | 1.54 | 1.50 | 1 | 1015.2 |
| 20260501234925 | 54 | 190 | 5.2 | 13.9 | 0.00 | 1.54 | 1.50 | 1 | 1015.3 |
| 20260501234804 | 54 | 191 | 4.3 | 13.9 | 0.00 | 1.54 | 1.50 | 1 | 1015.3 |
| 20260501234704 | 54 | 192 | 4.3 | 14.8 | 0.00 | 1.54 | 1.50 | 1 | 1015.3 |
| 20260501234604 | 54 | 191 | 3.5 | 14.8 | 0.00 | 1.54 | 1.50 | 1 | 1015.3 |
| 20260501234504 | 55 | 191 | 3.5 | 14.8 | 0.00 | 1.54 | 1.50 | 1 | 1015.3 |
| 20260501234404 | 55 | 191 | 3.5 | 14.8 | 0.00 | 1.54 | 1.50 | 1 | 1015.3 |
| 20260501234304 | 54 | 191 | 3.5 | 14.8 | 0.01 | 1.54 | 1.50 | 1 | 1015.2 |
| 20260501234204 | 54 | 189 | 3.5 | 14.8 | 0.01 | 1.54 | 1.50 | 1 | 1015.1 |
| 20260501234105 | 55 | 193 | 3.5 | 14.8 | 0.01 | 1.54 | 1.50 | 1 | 1015.1 |
| 20260501234004 | 54 | 195 | 4.3 | 14.8 | 0.01 | 1.54 | 1.50 | 1 | 1015.1 |
| 20260501233904 | 55 | 197 | 4.3 | 14.8 | 0.01 | 1.54 | 1.50 | 1 | 1015.1 |
| 20260501233804 | 54 | 198 | 5.2 | 14.8 | 0.01 | 1.54 | 1.50 | 1 | 1015.2 |
| 20260501233704 | 54 | 197 | 7.0 | 15.6 | 0.01 | 1.54 | 1.50 | 1 | 1015.2 |
| 20260501233604 | 54 | 198 | 7.0 | 17.4 | 0.01 | 1.54 | 1.50 | 1 | 1015.2 |
| 20260501233525 | 54 | 197 | 7.8 | 17.4 | 0.01 | 1.54 | 1.50 | 1 | 1015.1 |
| 20260501233425 | 54 | 197 | 7.8 | 17.4 | 0.01 | 1.54 | 1.50 | 1 | 1015.0 |
| 20260501233304 | 54 | 196 | 7.8 | 17.4 | 0.01 | 1.54 | 1.50 | 1 | 1014.9 |
| 20260501233204 | 54 | 197 | 7.8 | 17.4 | 0.01 | 1.54 | 1.50 | 1 | 1014.9 |
| 20260501233104 | 55 | 195 | 7.8 | 17.4 | 0.01 | 1.54 | 1.50 | 1 | 1014.8 |
| 20260501233004 | 54 | 195 | 8.7 | 17.4 | 0.01 | 1.54 | 1.50 | 1 | 1014.8 |
| 20260501232904 | 54 | 195 | 8.7 | 17.4 | 0.01 | 1.54 | 1.50 | 1 | 1014.8 |
| 20260501232804 | 54 | 194 | 8.7 | 17.4 | 0.01 | 1.54 | 1.50 | 1 | 1014.8 |
| 20260501232704 | 55 | 193 | 8.7 | 17.4 | 0.01 | 1.54 | 1.50 | 1 | 1014.8 |
| 20260501232604 | 55 | 192 | 8.7 | 16.5 | 0.01 | 1.54 | 1.50 | 1 | 1014.9 |
| 20260501232504 | 55 | 193 | 8.7 | 16.5 | 0.01 | 1.54 | 1.50 | 1 | 1014.8 |
| 20260501232404 | 55 | 193 | 8.7 | 16.5 | 0.01 | 1.54 | 1.50 | 1 | 1014.8 |
| 20260501232306 | 55 | 195 | 8.7 | 16.5 | 0.01 | 1.54 | 1.50 | 1 | 1014.7 |
| 20260501232204 | 54 | 195 | 8.7 | 16.5 | 0.01 | 1.54 | 1.50 | 1 | 1014.6 |
| 20260501232104 | 54 | 195 | 8.7 | 16.5 | 0.01 | 1.54 | 1.50 | 1 | 1014.6 |
| 20260501232004 | 54 | 195 | 8.7 | 16.5 | 0.02 | 1.54 | 1.50 | 1 | 1014.4 |
| 20260501231904 | 54 | 192 | 8.7 | 16.5 | 0.02 | 1.54 | 1.50 | 1 | 1014.5 |
| 20260501231804 | 55 | 191 | 7.8 | 16.5 | 0.02 | 1.54 | 1.50 | 1 | 1014.5 |
| 20260501231704 | 55 | 191 | 7.8 | 16.5 | 0.02 | 1.54 | 1.50 | 1 | 1014.5 |
| 20260501231604 | 55 | 190 | 7.8 | 19.1 | 0.02 | 1.54 | 1.50 | 1 | 1014.5 |
| 20260501231504 | 55 | 191 | 7.8 | 19.1 | 0.02 | 1.54 | 1.50 | 1 | 1014.6 |
| 20260501231404 | 55 | 189 | 7.8 | 19.1 | 0.02 | 1.54 | 1.50 | 1 | 1014.7 |
| 20260501231325 | 55 | 188 | 7.8 | 19.1 | 0.02 | 1.54 | 1.50 | 1 | 1014.8 |
| 20260501231204 | 55 | 188 | 7.8 | 19.1 | 0.02 | 1.54 | 1.50 | 1 | 1014.9 |
| 20260501231104 | 55 | 189 | 8.7 | 19.1 | 0.02 | 1.54 | 1.50 | 1 | 1014.9 |
| 20260501231004 | 55 | 188 | 7.8 | 19.1 | 0.02 | 1.54 | 1.50 | 1 | 1014.8 |
| 20260501230904 | 55 | 189 | 7.8 | 19.1 | 0.02 | 1.54 | 1.50 | 1 | 1014.7 |
| 20260501230804 | 55 | 190 | 8.7 | 19.1 | 0.03 | 1.54 | 1.50 | 1 | 1014.6 |
| 20260501230704 | 55 | 190 | 8.7 | 19.1 | 0.03 | 1.54 | 1.50 | 1 | 1014.5 |
| 20260501230604 | 55 | 190 | 8.7 | 16.5 | 0.03 | 1.54 | 1.50 | 1 | 1014.5 |
| 20260501230504 | 55 | 189 | 8.7 | 16.5 | 0.03 | 1.54 | 1.50 | 1 | 1014.4 |
| 20260501230404 | 55 | 191 | 8.7 | 16.5 | 0.03 | 1.54 | 1.50 | 1 | 1014.4 |
| 20260501230304 | 55 | 192 | 8.7 | 16.5 | 0.04 | 1.54 | 1.50 | 1 | 1014.4 |
| 20260501230204 | 55 | 191 | 8.7 | 16.5 | 0.04 | 1.54 | 1.50 | 1 | 1014.3 |
| 20260501230104 | 55 | 189 | 8.7 | 16.5 | 0.04 | 1.54 | 1.50 | 1 | 1014.3 |
| 20260501230004 | 55 | 189 | 8.7 | 16.5 | 0.05 | 1.54 | 1.50 | 1 | 1014.3 |
| 20260501225904 | 55 | 189 | 8.7 | 16.5 | 0.05 | 1.54 | 1.50 | 1 | 1014.3 |
| 20260501225804 | 55 | 189 | 8.7 | 16.5 | 0.05 | 1.54 | 1.50 | 1 | 1014.4 |
| 20260501225704 | 55 | 189 | 7.8 | 16.5 | 0.05 | 1.54 | 1.50 | 1 | 1014.4 |
| 20260501225604 | 55 | 188 | 7.8 | 16.5 | 0.06 | 1.54 | 1.50 | 1 | 1014.3 |
| 20260501225504 | 55 | 188 | 7.8 | 16.5 | 0.06 | 1.54 | 1.50 | 1 | 1014.4 |
| 20260501225404 | 55 | 185 | 7.8 | 16.5 | 0.06 | 1.54 | 1.50 | 1 | 1014.4 |
| 20260501225306 | 55 | 185 | 7.8 | 16.5 | 0.07 | 1.54 | 1.50 | 1 | 1014.5 |
| 20260501225204 | 55 | 186 | 7.8 | 16.5 | 0.07 | 1.54 | 1.50 | 1 | 1014.4 |
| 20260501225104 | 55 | 188 | 7.8 | 16.5 | 0.07 | 1.54 | 1.50 | 1 | 1014.4 |
| 20260501225004 | 55 | 189 | 8.7 | 16.5 | 0.07 | 1.54 | 1.50 | 1 | 1014.4 |
| 20260501224925 | 55 | 188 | 8.7 | 16.5 | 0.07 | 1.54 | 1.50 | 1 | 1014.5 |
| 20260501224804 | 55 | 190 | 8.7 | 18.2 | 0.08 | 1.54 | 1.50 | 1 | 1014.4 |
| 20260501224704 | 55 | 191 | 9.6 | 18.2 | 0.08 | 1.54 | 1.50 | 1 | 1014.4 |
| 20260501224605 | 55 | 191 | 9.6 | 18.2 | 0.08 | 1.54 | 1.50 | 1 | 1014.4 |
| 20260501224504 | 55 | 192 | 9.6 | 18.2 | 0.08 | 1.54 | 1.50 | 1 | 1014.3 |
| 20260501224404 | 55 | 194 | 9.6 | 18.2 | 0.08 | 1.54 | 1.50 | 1 | 1014.4 |
| 20260501224304 | 55 | 195 | 9.6 | 20.0 | 0.07 | 1.53 | 1.49 | 1 | 1014.4 |
| 20260501224204 | 55 | 196 | 9.6 | 20.0 | 0.07 | 1.53 | 1.49 | 1 | 1014.4 |
| 20260501224104 | 55 | 196 | 8.7 | 20.0 | 0.08 | 1.53 | 1.49 | 1 | 1014.3 |
| 20260501224025 | 55 | 196 | 8.7 | 20.0 | 0.08 | 1.53 | 1.49 | 1 | 1014.2 |
| 20260501223925 | 55 | 196 | 8.7 | 20.0 | 0.08 | 1.53 | 1.49 | 1 | 1014.2 |
| 20260501223804 | 55 | 196 | 7.8 | 20.0 | 0.08 | 1.53 | 1.49 | 1 | 1014.0 |
| 20260501223704 | 55 | 194 | 7.8 | 20.0 | 0.08 | 1.53 | 1.49 | 1 | 1014.0 |
| 20260501223604 | 55 | 195 | 7.8 | 20.0 | 0.09 | 1.53 | 1.49 | 1 | 1013.9 |
| 20260501223504 | 56 | 193 | 7.8 | 20.0 | 0.09 | 1.53 | 1.49 | 1 | 1013.9 |
| 20260501223425 | 56 | 192 | 7.8 | 20.0 | 0.09 | 1.53 | 1.49 | 1 | 1013.8 |
| 20260501223304 | 56 | 190 | 7.0 | 19.1 | 0.09 | 1.53 | 1.49 | 1 | 1013.6 |
| 20260501223204 | 56 | 188 | 7.0 | 14.8 | 0.09 | 1.53 | 1.49 | 1 | 1013.7 |
| 20260501223125 | 56 | 187 | 7.0 | 14.8 | 0.09 | 1.53 | 1.49 | 1 | 1013.8 |
| 20260501223004 | 56 | 188 | 7.0 | 14.8 | 0.09 | 1.53 | 1.49 | 1 | 1013.9 |
| 20260501222904 | 56 | 187 | 7.8 | 14.8 | 0.09 | 1.53 | 1.49 | 1 | 1014.0 |
| 20260501222804 | 56 | 187 | 7.8 | 14.8 | 0.09 | 1.53 | 1.49 | 1 | 1014.0 |
| 20260501222704 | 56 | 188 | 7.8 | 14.8 | 0.09 | 1.53 | 1.49 | 1 | 1014.1 |
| 20260501222604 | 56 | 190 | 7.8 | 14.8 | 0.09 | 1.53 | 1.49 | 1 | 1014.1 |
| 20260501222504 | 55 | 189 | 7.8 | 14.8 | 0.09 | 1.53 | 1.49 | 1 | 1014.1 |
| 20260501222404 | 55 | 187 | 7.8 | 14.8 | 0.09 | 1.53 | 1.49 | 1 | 1014.1 |
| 20260501222305 | 55 | 187 | 7.8 | 14.8 | 0.09 | 1.53 | 1.49 | 1 | 1014.2 |
| 20260501222204 | 55 | 188 | 7.0 | 14.8 | 0.09 | 1.53 | 1.49 | 1 | 1014.2 |
| 20260501222104 | 55 | 186 | 7.0 | 14.8 | 0.09 | 1.53 | 1.49 | 1 | 1014.2 |
| 20260501222004 | 55 | 184 | 7.0 | 14.8 | 0.08 | 1.52 | 1.48 | 1 | 1014.3 |
| 20260501221904 | 55 | 186 | 7.0 | 14.8 | 0.08 | 1.52 | 1.48 | 1 | 1014.4 |
| 20260501221804 | 55 | 186 | 7.0 | 14.8 | 0.08 | 1.52 | 1.48 | 1 | 1014.5 |
| 20260501221704 | 55 | 185 | 6.1 | 14.8 | 0.08 | 1.52 | 1.48 | 1 | 1014.5 |
| 20260501221604 | 55 | 181 | 7.0 | 13.9 | 0.08 | 1.52 | 1.48 | 1 | 1014.6 |
| 20260501221504 | 55 | 182 | 7.0 | 13.9 | 0.08 | 1.52 | 1.48 | 1 | 1014.6 |
| 20260501221404 | 56 | 185 | 7.0 | 13.9 | 0.08 | 1.52 | 1.48 | 1 | 1014.7 |
| 20260501221304 | 56 | 183 | 7.0 | 16.5 | 0.08 | 1.52 | 1.48 | 1 | 1014.8 |
| 20260501221204 | 56 | 181 | 7.8 | 16.5 | 0.08 | 1.52 | 1.48 | 1 | 1014.7 |
| 20260501221104 | 56 | 180 | 7.8 | 16.5 | 0.08 | 1.52 | 1.48 | 1 | 1014.8 |
| 20260501221004 | 56 | 179 | 7.8 | 16.5 | 0.08 | 1.52 | 1.48 | 1 | 1014.8 |
| 20260501220904 | 56 | 176 | 7.8 | 16.5 | 0.08 | 1.52 | 1.48 | 1 | 1014.7 |
| 20260501220804 | 56 | 175 | 8.7 | 16.5 | 0.07 | 1.51 | 1.47 | 1 | 1014.6 |
| 20260501220704 | 56 | 175 | 8.7 | 16.5 | 0.07 | 1.51 | 1.47 | 1 | 1014.5 |
| 20260501220604 | 56 | 175 | 8.7 | 16.5 | 0.07 | 1.51 | 1.47 | 1 | 1014.5 |
| 20260501220504 | 56 | 175 | 8.7 | 16.5 | 0.07 | 1.51 | 1.47 | 1 | 1014.4 |
| 20260501220404 | 56 | 174 | 8.7 | 16.5 | 0.07 | 1.51 | 1.47 | 1 | 1014.3 |
| 20260501220304 | 56 | 174 | 8.7 | 15.6 | 0.06 | 1.50 | 1.46 | 1 | 1014.2 |
| 20260501220204 | 56 | 175 | 8.7 | 15.6 | 0.06 | 1.50 | 1.46 | 1 | 1014.1 |
| 20260501220004 | 56 | 178 | 8.7 | 17.4 | 0.05 | 1.49 | 1.45 | 1 | 1014.0 |
| 20260501215904 | 56 | 178 | 8.7 | 17.4 | 0.05 | 1.49 | 1.45 | 1 | 1014.0 |
| 20260501215804 | 56 | 176 | 8.7 | 17.4 | 0.05 | 1.49 | 1.45 | 1 | 1013.9 |
| 20260501215704 | 56 | 177 | 8.7 | 17.4 | 0.05 | 1.49 | 1.45 | 1 | 1013.8 |
| 20260501215625 | 56 | 177 | 8.7 | 17.4 | 0.04 | 1.48 | 1.44 | 1 | 1013.8 |
| 20260501215504 | 56 | 180 | 8.7 | 17.4 | 0.04 | 1.48 | 1.44 | 1 | 1013.8 |
| 20260501215404 | 56 | 179 | 8.7 | 17.4 | 0.04 | 1.48 | 1.44 | 1 | 1013.8 |
| 20260501215305 | 56 | 180 | 7.8 | 17.4 | 0.03 | 1.47 | 1.43 | 1 | 1013.7 |
| 20260501215225 | 56 | 179 | 7.8 | 17.4 | 0.03 | 1.47 | 1.43 | 1 | 1013.8 |
| 20260501215125 | 56 | 178 | 7.0 | 17.4 | 0.03 | 1.47 | 1.43 | 1 | 1013.9 |
| 20260501215004 | 56 | 178 | 7.0 | 14.8 | 0.03 | 1.47 | 1.43 | 1 | 1013.8 |
| 20260501214904 | 56 | 181 | 7.0 | 14.8 | 0.03 | 1.47 | 1.43 | 1 | 1013.9 |
| 20260501214804 | 56 | 182 | 7.0 | 17.4 | 0.02 | 1.46 | 1.42 | 1 | 1013.9 |
| 20260501214704 | 56 | 182 | 7.0 | 17.4 | 0.02 | 1.46 | 1.42 | 1 | 1013.9 |
| 20260501214604 | 56 | 182 | 7.0 | 17.4 | 0.02 | 1.46 | 1.42 | 1 | 1013.9 |
| 20260501214525 | 56 | 180 | 7.0 | 17.4 | 0.02 | 1.46 | 1.42 | 1 | 1014.0 |
| 20260501214404 | 56 | 180 | 7.0 | 17.4 | 0.02 | 1.46 | 1.42 | 1 | 1014.0 |
| 20260501214304 | 56 | 180 | 7.8 | 17.4 | 0.02 | 1.46 | 1.42 | 1 | 1014.0 |
| 20260501214204 | 56 | 183 | 7.8 | 17.4 | 0.02 | 1.46 | 1.42 | 1 | 1014.0 |
| 20260501214125 | 56 | 182 | 7.8 | 17.4 | 0.01 | 1.45 | 1.42 | 1 | 1013.9 |
| 20260501214025 | 56 | 181 | 7.8 | 17.4 | 0.01 | 1.45 | 1.41 | 1 | 1013.9 |
| 20260501213904 | 56 | 181 | 7.8 | 17.4 | 0.01 | 1.45 | 1.41 | 1 | 1013.8 |
| 20260501213804 | 56 | 183 | 7.8 | 16.5 | 0.01 | 1.45 | 1.41 | 1 | 1013.7 |
| 20260501213704 | 56 | 179 | 7.0 | 15.6 | 0.02 | 1.45 | 1.41 | 1 | 1013.7 |
| 20260501213604 | 56 | 178 | 7.0 | 15.6 | 0.01 | 1.44 | 1.40 | 1 | 1013.7 |
| 20260501213525 | 56 | 178 | 7.0 | 15.6 | 0.01 | 1.44 | 1.40 | 1 | 1013.7 |
| 20260501213404 | 56 | 179 | 7.8 | 15.6 | 0.01 | 1.44 | 1.40 | 1 | 1013.6 |
| 20260501213325 | 56 | 179 | 7.8 | 15.6 | 0.01 | 1.44 | 1.40 | 1 | 1013.6 |
| 20260501213204 | 56 | 178 | 7.8 | 15.6 | 0.01 | 1.44 | 1.40 | 1 | 1013.6 |
| 20260501213104 | 56 | 178 | 7.8 | 15.6 | 0.01 | 1.44 | 1.40 | 1 | 1013.5 |
| 20260501213004 | 56 | 178 | 7.8 | 15.6 | 0.01 | 1.44 | 1.40 | 1 | 1013.5 |
| 20260501212925 | 56 | 178 | 7.8 | 15.6 | 0.01 | 1.44 | 1.40 | 1 | 1013.5 |
| 20260501212804 | 56 | 176 | 7.8 | 16.5 | 0.01 | 1.44 | 1.40 | 1 | 1013.4 |
| 20260501212704 | 56 | 178 | 8.7 | 16.5 | 0.01 | 1.44 | 1.40 | 1 | 1013.4 |
| 20260501212604 | 56 | 180 | 8.7 | 16.5 | 0.01 | 1.44 | 1.40 | 1 | 1013.3 |
| 20260501212504 | 56 | 181 | 8.7 | 16.5 | 0.01 | 1.44 | 1.40 | 1 | 1013.2 |
| 20260501212425 | 56 | 180 | 7.8 | 16.5 | 0.01 | 1.44 | 1.40 | 1 | 1013.2 |
| 20260501212306 | 56 | 181 | 8.7 | 16.5 | 0.01 | 1.44 | 1.40 | 1 | 1013.2 |
| 20260501212204 | 56 | 181 | 8.7 | 16.5 | 0.01 | 1.44 | 1.40 | 1 | 1013.0 |
| 20260501212125 | 56 | 183 | 8.7 | 16.5 | 0.01 | 1.44 | 1.40 | 1 | 1013.0 |
| 20260501212004 | 56 | 183 | 8.7 | 16.5 | 0.01 | 1.44 | 1.40 | 1 | 1013.0 |
| 20260501211904 | 56 | 185 | 7.8 | 15.6 | 0.01 | 1.44 | 1.40 | 1 | 1012.9 |
| 20260501211804 | 56 | 186 | 7.8 | 15.6 | 0.01 | 1.44 | 1.40 | 1 | 1012.8 |
| 20260501211704 | 56 | 187 | 7.0 | 15.6 | 0.01 | 1.44 | 1.40 | 1 | 1012.8 |
| 20260501211604 | 56 | 186 | 7.0 | 15.6 | 0.01 | 1.44 | 1.40 | 1 | 1012.8 |
| 20260501211504 | 56 | 185 | 7.0 | 15.6 | 0.01 | 1.44 | 1.40 | 1 | 1012.8 |
| 20260501211404 | 56 | 186 | 7.0 | 15.6 | 0.01 | 1.44 | 1.40 | 1 | 1012.8 |
| 20260501211304 | 56 | 183 | 7.0 | 14.8 | 0.01 | 1.44 | 1.40 | 1 | 1012.7 |
| 20260501211204 | 56 | 182 | 7.0 | 14.8 | 0.01 | 1.44 | 1.40 | 1 | 1012.6 |
| 20260501211104 | 56 | 182 | 7.0 | 14.8 | 0.01 | 1.44 | 1.40 | 1 | 1012.7 |
| 20260501211004 | 56 | 185 | 6.1 | 14.8 | 0.01 | 1.44 | 1.40 | 1 | 1012.7 |
| 20260501210904 | 56 | 183 | 6.1 | 14.8 | 0.01 | 1.44 | 1.40 | 1 | 1012.7 |
| 20260501210804 | 57 | 183 | 6.1 | 14.8 | 0.01 | 1.44 | 1.40 | 1 | 1012.8 |
| 20260501210704 | 57 | 183 | 7.0 | 14.8 | 0.01 | 1.44 | 1.40 | 1 | 1012.8 |
| 20260501210604 | 57 | 184 | 7.0 | 13.9 | 0.01 | 1.44 | 1.40 | 1 | 1012.9 |
| 20260501210504 | 56 | 186 | 7.0 | 13.9 | 0.01 | 1.44 | 1.40 | 1 | 1012.9 |
| 20260501210404 | 57 | 189 | 7.8 | 13.9 | 0.02 | 1.44 | 1.40 | 1 | 1012.9 |
| 20260501210325 | 57 | 191 | 7.8 | 14.8 | 0.02 | 1.44 | 1.40 | 1 | 1012.9 |
| 20260501210204 | 57 | 192 | 7.8 | 14.8 | 0.02 | 1.44 | 1.40 | 1 | 1012.8 |
| 20260501210104 | 57 | 194 | 7.0 | 14.8 | 0.02 | 1.44 | 1.40 | 1 | 1012.8 |
| 20260501210004 | 57 | 193 | 7.8 | 14.8 | 0.02 | 1.44 | 1.40 | 1 | 1012.8 |
| 20260501205904 | 57 | 193 | 7.8 | 14.8 | 0.02 | 1.44 | 1.40 | 1 | 1012.8 |
| 20260501205804 | 57 | 193 | 7.8 | 14.8 | 0.02 | 1.44 | 1.40 | 1 | 1012.7 |
| 20260501205704 | 57 | 193 | 7.8 | 14.8 | 0.02 | 1.44 | 1.40 | 1 | 1012.6 |
| 20260501205604 | 57 | 191 | 7.8 | 14.8 | 0.02 | 1.44 | 1.40 | 1 | 1012.4 |
| 20260501205525 | 57 | 191 | 7.8 | 14.8 | 0.02 | 1.44 | 1.40 | 1 | 1012.2 |
| 20260501205404 | 57 | 189 | 7.0 | 14.8 | 0.02 | 1.44 | 1.40 | 1 | 1012.1 |
| 20260501205306 | 57 | 189 | 7.0 | 13.9 | 0.03 | 1.44 | 1.40 | 1 | 1012.0 |
| 20260501205225 | 57 | 189 | 7.0 | 13.9 | 0.03 | 1.44 | 1.40 | 1 | 1011.9 |
| 20260501205104 | 57 | 186 | 7.0 | 13.9 | 0.03 | 1.44 | 1.40 | 1 | 1012.0 |
| 20260501205004 | 57 | 184 | 7.0 | 13.9 | 0.03 | 1.44 | 1.40 | 1 | 1012.1 |
| 20260501204904 | 57 | 183 | 7.0 | 13.9 | 0.03 | 1.44 | 1.40 | 1 | 1012.2 |
| 20260501204804 | 57 | 184 | 7.0 | 13.9 | 0.03 | 1.44 | 1.40 | 1 | 1012.4 |
| 20260501204704 | 57 | 184 | 7.0 | 13.9 | 0.03 | 1.44 | 1.40 | 1 | 1012.4 |
| 20260501204604 | 57 | 182 | 7.0 | 13.9 | 0.03 | 1.44 | 1.40 | 1 | 1012.4 |
| 20260501204505 | 57 | 182 | 7.0 | 13.9 | 0.03 | 1.44 | 1.40 | 1 | 1012.5 |
| 20260501204404 | 57 | 183 | 7.0 | 13.9 | 0.04 | 1.44 | 1.40 | 1 | 1012.5 |
| 20260501204304 | 57 | 182 | 7.0 | 15.6 | 0.04 | 1.44 | 1.40 | 1 | 1012.5 |
| 20260501204204 | 57 | 186 | 7.0 | 15.6 | 0.04 | 1.44 | 1.40 | 1 | 1012.5 |
| 20260501204104 | 57 | 188 | 7.0 | 15.6 | 0.04 | 1.44 | 1.40 | 1 | 1012.6 |
| 20260501204004 | 57 | 189 | 7.8 | 15.6 | 0.04 | 1.44 | 1.40 | 1 | 1012.5 |
| 20260501203925 | 57 | 188 | 7.8 | 15.6 | 0.05 | 1.44 | 1.40 | 1 | 1012.5 |
| 20260501203804 | 57 | 188 | 7.8 | 15.6 | 0.05 | 1.44 | 1.40 | 1 | 1012.4 |
| 20260501203704 | 57 | 192 | 7.8 | 15.6 | 0.04 | 1.43 | 1.39 | 1 | 1012.3 |
| 20260501203604 | 57 | 194 | 7.8 | 15.6 | 0.04 | 1.43 | 1.39 | 1 | 1012.2 |
| 20260501203504 | 57 | 197 | 7.8 | 15.6 | 0.04 | 1.43 | 1.39 | 1 | 1012.0 |
| 20260501203404 | 57 | 200 | 7.8 | 15.6 | 0.05 | 1.43 | 1.39 | 1 | 1011.9 |
| 20260501203304 | 57 | 202 | 7.8 | 14.8 | 0.05 | 1.43 | 1.39 | 1 | 1011.7 |
| 20260501203204 | 57 | 203 | 7.8 | 14.8 | 0.05 | 1.43 | 1.39 | 1 | 1011.6 |
| 20260501203104 | 57 | 204 | 7.8 | 14.8 | 0.05 | 1.43 | 1.39 | 1 | 1011.5 |
| 20260501203025 | 57 | 205 | 7.8 | 14.8 | 0.05 | 1.43 | 1.39 | 1 | 1011.4 |
| 20260501202904 | 57 | 207 | 7.8 | 14.8 | 0.05 | 1.43 | 1.39 | 1 | 1011.4 |
| 20260501202804 | 57 | 206 | 7.8 | 14.8 | 0.05 | 1.43 | 1.39 | 1 | 1011.3 |
| 20260501202704 | 57 | 206 | 7.8 | 14.8 | 0.05 | 1.43 | 1.39 | 1 | 1011.3 |
| 20260501202604 | 57 | 205 | 7.8 | 14.8 | 0.05 | 1.43 | 1.39 | 1 | 1011.3 |
| 20260501202525 | 57 | 204 | 7.8 | 14.8 | 0.05 | 1.43 | 1.39 | 1 | 1011.4 |
| 20260501202404 | 57 | 201 | 7.8 | 14.8 | 0.05 | 1.43 | 1.39 | 1 | 1011.5 |
| 20260501202306 | 57 | 202 | 7.8 | 14.8 | 0.05 | 1.43 | 1.39 | 1 | 1011.7 |
| 20260501202204 | 57 | 200 | 7.8 | 14.8 | 0.05 | 1.43 | 1.39 | 1 | 1011.7 |
| 20260501202104 | 57 | 199 | 7.8 | 14.8 | 0.05 | 1.43 | 1.39 | 1 | 1011.8 |
| 20260501202004 | 57 | 197 | 7.8 | 14.8 | 0.05 | 1.43 | 1.39 | 1 | 1011.9 |
| 20260501201904 | 57 | 199 | 7.8 | 14.8 | 0.05 | 1.43 | 1.39 | 1 | 1011.9 |
| 20260501201804 | 57 | 200 | 7.0 | 14.8 | 0.05 | 1.43 | 1.39 | 1 | 1012.0 |
| 20260501201704 | 57 | 201 | 7.8 | 14.8 | 0.05 | 1.43 | 1.39 | 1 | 1012.0 |
| 20260501201604 | 57 | 202 | 7.8 | 14.8 | 0.05 | 1.43 | 1.39 | 1 | 1011.8 |
| 20260501201504 | 57 | 204 | 7.8 | 14.8 | 0.05 | 1.43 | 1.39 | 1 | 1011.8 |
| 20260501201425 | 57 | 203 | 7.8 | 14.8 | 0.05 | 1.43 | 1.39 | 1 | 1011.8 |
| 20260501201304 | 57 | 203 | 7.0 | 13.0 | 0.05 | 1.43 | 1.39 | 1 | 1012.0 |
| 20260501201204 | 57 | 204 | 7.8 | 13.9 | 0.05 | 1.43 | 1.39 | 1 | 1012.0 |
| 20260501201104 | 58 | 204 | 7.0 | 13.9 | 0.05 | 1.43 | 1.39 | 1 | 1012.1 |
| 20260501201025 | 58 | 206 | 7.0 | 13.9 | 0.05 | 1.44 | 1.39 | 1 | 1012.2 |
| 20260501200904 | 58 | 207 | 7.0 | 13.9 | 0.05 | 1.44 | 1.39 | 1 | 1012.1 |
| 20260501200804 | 58 | 208 | 7.0 | 13.9 | 0.05 | 1.44 | 1.39 | 1 | 1012.2 |
| 20260501200704 | 58 | 207 | 7.0 | 13.9 | 0.05 | 1.44 | 1.39 | 1 | 1012.1 |
| 20260501200625 | 58 | 208 | 7.0 | 13.9 | 0.05 | 1.44 | 1.39 | 1 | 1012.0 |
| 20260501200504 | 58 | 206 | 7.0 | 13.9 | 0.05 | 1.44 | 1.39 | 1 | 1011.9 |
| 20260501200404 | 58 | 208 | 7.0 | 13.9 | 0.04 | 1.43 | 1.38 | 1 | 1011.8 |
| 20260501200325 | 57 | 207 | 7.0 | 13.9 | 0.04 | 1.43 | 1.38 | 1 | 1011.8 |
| 20260501200204 | 58 | 207 | 7.0 | 13.0 | 0.04 | 1.43 | 1.38 | 1 | 1011.9 |
| 20260501200104 | 58 | 205 | 7.0 | 13.0 | 0.04 | 1.43 | 1.38 | 1 | 1012.0 |
| 20260501200004 | 58 | 204 | 7.0 | 13.0 | 0.04 | 1.43 | 1.38 | 1 | 1012.0 |
| 20260501195904 | 57 | 201 | 7.0 | 13.0 | 0.04 | 1.43 | 1.38 | 1 | 1012.1 |
| 20260501195804 | 57 | 198 | 7.0 | 13.0 | 0.04 | 1.43 | 1.38 | 1 | 1012.1 |
| 20260501195704 | 57 | 196 | 7.0 | 13.0 | 0.04 | 1.43 | 1.38 | 1 | 1012.2 |
| 20260501195604 | 57 | 195 | 7.0 | 14.8 | 0.04 | 1.43 | 1.38 | 1 | 1012.2 |
| 20260501195504 | 57 | 193 | 7.0 | 14.8 | 0.04 | 1.43 | 1.38 | 1 | 1012.3 |
| 20260501195425 | 57 | 190 | 7.0 | 14.8 | 0.04 | 1.43 | 1.38 | 1 | 1012.4 |
| 20260501195306 | 57 | 189 | 7.8 | 17.4 | 0.03 | 1.42 | 1.37 | 1 | 1012.4 |
| 20260501195204 | 57 | 186 | 7.8 | 17.4 | 0.03 | 1.42 | 1.37 | 1 | 1012.5 |
| 20260501195104 | 57 | 186 | 7.8 | 17.4 | 0.03 | 1.42 | 1.37 | 1 | 1012.4 |
| 20260501195025 | 57 | 185 | 7.0 | 17.4 | 0.03 | 1.42 | 1.37 | 1 | 1012.5 |
| 20260501194904 | 57 | 184 | 7.8 | 17.4 | 0.03 | 1.42 | 1.37 | 1 | 1012.5 |
| 20260501194825 | 57 | 185 | 7.8 | 17.4 | 0.03 | 1.42 | 1.37 | 1 | 1012.5 |
| 20260501194704 | 57 | 183 | 7.8 | 17.4 | 0.03 | 1.42 | 1.37 | 1 | 1012.7 |
| 20260501194604 | 57 | 182 | 7.8 | 17.4 | 0.03 | 1.42 | 1.37 | 1 | 1012.8 |
| 20260501194504 | 57 | 181 | 7.0 | 17.4 | 0.03 | 1.42 | 1.37 | 1 | 1012.9 |
| 20260501194404 | 57 | 181 | 7.0 | 17.4 | 0.02 | 1.41 | 1.36 | 1 | 1013.1 |
| 20260501194304 | 57 | 180 | 6.1 | 13.9 | 0.02 | 1.41 | 1.36 | 1 | 1013.3 |
| 20260501194204 | 57 | 179 | 6.1 | 13.9 | 0.02 | 1.41 | 1.36 | 1 | 1013.3 |
| 20260501194104 | 57 | 175 | 6.1 | 13.9 | 0.02 | 1.41 | 1.36 | 1 | 1013.3 |
| 20260501194004 | 57 | 172 | 6.1 | 13.9 | 0.02 | 1.41 | 1.36 | 1 | 1013.4 |
| 20260501193904 | 57 | 168 | 6.1 | 13.9 | 0.01 | 1.40 | 1.35 | 1 | 1013.4 |
| 20260501193804 | 57 | 163 | 6.1 | 13.9 | 0.01 | 1.40 | 1.35 | 1 | 1013.4 |
| 20260501193704 | 58 | 160 | 5.2 | 13.9 | 0.02 | 1.40 | 1.35 | 1 | 1013.4 |
| 20260501193604 | 58 | 156 | 5.2 | 13.9 | 0.02 | 1.40 | 1.35 | 1 | 1013.5 |
| 20260501193505 | 58 | 153 | 5.2 | 13.9 | 0.02 | 1.40 | 1.35 | 1 | 1013.6 |
| 20260501193404 | 58 | 151 | 6.1 | 13.9 | 0.01 | 1.39 | 1.34 | 1 | 1013.8 |
| 20260501193304 | 57 | 150 | 6.1 | 13.9 | 0.01 | 1.39 | 1.34 | 1 | 1013.7 |
| 20260501193204 | 57 | 150 | 6.1 | 13.9 | 0.02 | 1.39 | 1.34 | 1 | 1013.9 |
| 20260501193104 | 57 | 151 | 6.1 | 13.9 | 0.02 | 1.39 | 1.34 | 1 | 1014.0 |
| 20260501193004 | 57 | 151 | 6.1 | 13.9 | 0.02 | 1.39 | 1.34 | 1 | 1014.1 |
| 20260501192904 | 57 | 155 | 6.1 | 16.5 | 0.03 | 1.39 | 1.34 | 1 | 1014.1 |
| 20260501192804 | 57 | 159 | 7.0 | 16.5 | 0.03 | 1.39 | 1.34 | 1 | 1014.1 |
| 20260501192704 | 57 | 161 | 7.0 | 16.5 | 0.04 | 1.39 | 1.34 | 1 | 1014.0 |
| 20260501192604 | 57 | 161 | 7.0 | 16.5 | 0.05 | 1.39 | 1.34 | 1 | 1013.8 |
| 20260501192504 | 57 | 166 | 7.8 | 16.5 | 0.05 | 1.39 | 1.34 | 1 | 1013.6 |
| 20260501192425 | 58 | 168 | 7.8 | 16.5 | 0.06 | 1.39 | 1.34 | 1 | 1013.3 |
| 20260501192306 | 58 | 172 | 8.7 | 16.5 | 0.07 | 1.39 | 1.34 | 1 | 1013.1 |
| 20260501192204 | 58 | 173 | 7.8 | 16.5 | 0.08 | 1.39 | 1.34 | 1 | 1012.9 |
| 20260501192104 | 58 | 175 | 7.0 | 16.5 | 0.09 | 1.40 | 1.34 | 1 | 1012.6 |
| 20260501192004 | 58 | 177 | 7.0 | 16.5 | 0.10 | 1.41 | 1.34 | 1 | 1012.4 |
| 20260501191904 | 58 | 179 | 7.0 | 20.0 | 0.11 | 1.43 | 1.34 | 1 | 1012.3 |
| 20260501191804 | 58 | 182 | 7.0 | 20.0 | 0.12 | 1.45 | 1.34 | 1 | 1012.2 |
| 20260501191704 | 58 | 186 | 7.0 | 20.0 | 0.13 | 1.46 | 1.34 | 1 | 1012.1 |
| 20260501191604 | 58 | 191 | 7.0 | 20.0 | 0.14 | 1.47 | 1.34 | 1 | 1012.1 |
| 20260501191504 | 58 | 192 | 7.0 | 20.0 | 0.14 | 1.47 | 1.34 | 1 | 1012.1 |
| 20260501191404 | 58 | 194 | 7.0 | 20.0 | 0.15 | 1.47 | 1.34 | 1 | 1012.0 |
| 20260501191304 | 58 | 194 | 7.0 | 20.0 | 0.15 | 1.48 | 1.34 | 1 | 1011.9 |
| 20260501191225 | 58 | 196 | 7.0 | 20.0 | 0.16 | 1.48 | 1.34 | 1 | 1011.8 |
| 20260501191104 | 58 | 198 | 7.8 | 20.0 | 0.17 | 1.48 | 1.34 | 1 | 1011.7 |
| 20260501191004 | 58 | 197 | 7.8 | 20.0 | 0.17 | 1.49 | 1.34 | 1 | 1011.6 |
| 20260501190904 | 58 | 198 | 7.8 | 15.6 | 0.18 | 1.49 | 1.34 | 1 | 1011.5 |
| 20260501190804 | 58 | 199 | 7.8 | 15.6 | 0.19 | 1.49 | 1.34 | 1 | 1011.5 |
| 20260501190704 | 58 | 197 | 7.8 | 15.6 | 0.20 | 1.49 | 1.34 | 1 | 1011.5 |
| 20260501190604 | 58 | 197 | 7.8 | 15.6 | 0.20 | 1.50 | 1.34 | 1 | 1011.5 |
| 20260501190504 | 58 | 193 | 7.8 | 15.6 | 0.21 | 1.50 | 1.34 | 1 | 1011.5 |
| 20260501190404 | 58 | 194 | 7.8 | 15.6 | 0.21 | 1.50 | 1.34 | 1 | 1011.5 |
| 20260501190304 | 58 | 197 | 8.7 | 18.2 | 0.22 | 1.50 | 1.34 | 1 | 1011.5 |
| 20260501190204 | 58 | 196 | 8.7 | 18.2 | 0.22 | 1.50 | 1.34 | 1 | 1011.5 |
| 20260501190104 | 58 | 193 | 8.7 | 18.2 | 0.22 | 1.50 | 1.34 | 1 | 1011.6 |
| 20260501190025 | 58 | 192 | 8.7 | 18.2 | 0.22 | 1.50 | 1.34 | 1 | 1011.6 |
| 20260501185925 | 58 | 191 | 8.7 | 18.2 | 0.23 | 1.50 | 1.34 | 1 | 1011.6 |
| 20260501185804 | 58 | 190 | 8.7 | 18.2 | 0.23 | 1.51 | 1.34 | 1 | 1011.7 |
| 20260501185725 | 58 | 191 | 8.7 | 18.2 | 0.23 | 1.51 | 1.34 | 1 | 1011.7 |
| 20260501185604 | 58 | 189 | 8.7 | 18.2 | 0.23 | 1.51 | 1.34 | 1 | 1011.7 |
| 20260501185504 | 58 | 191 | 9.6 | 18.2 | 0.23 | 1.51 | 1.34 | 1 | 1011.7 |
| 20260501185404 | 58 | 190 | 9.6 | 18.2 | 0.23 | 1.51 | 1.34 | 1 | 1011.7 |
| 20260501185306 | 58 | 188 | 9.6 | 20.0 | 0.23 | 1.52 | 1.34 | 1 | 1011.7 |
| 20260501185226 | 58 | 187 | 9.6 | 20.0 | 0.24 | 1.52 | 1.34 | 1 | 1011.6 |
| 20260501185104 | 58 | 188 | 9.6 | 20.0 | 0.24 | 1.52 | 1.34 | 1 | 1011.6 |
| 20260501185004 | 58 | 189 | 9.6 | 20.0 | 0.24 | 1.53 | 1.34 | 1 | 1011.6 |
| 20260501184925 | 58 | 189 | 9.6 | 20.0 | 0.24 | 1.53 | 1.34 | 1 | 1011.6 |
| 20260501184804 | 57 | 187 | 9.6 | 20.0 | 0.24 | 1.53 | 1.34 | 1 | 1011.5 |
| 20260501184704 | 57 | 187 | 8.7 | 20.0 | 0.24 | 1.53 | 1.34 | 1 | 1011.6 |
| 20260501184604 | 57 | 186 | 8.7 | 20.0 | 0.25 | 1.53 | 1.34 | 1 | 1011.9 |
| 20260501184504 | 57 | 183 | 7.8 | 20.0 | 0.25 | 1.53 | 1.34 | 1 | 1012.0 |
| 20260501184404 | 57 | 183 | 7.8 | 20.0 | 0.25 | 1.53 | 1.34 | 1 | 1012.3 |
| 20260501184304 | 58 | 181 | 7.8 | 15.6 | 0.25 | 1.53 | 1.34 | 1 | 1012.3 |
| 20260501184204 | 58 | 180 | 7.8 | 15.6 | 0.25 | 1.53 | 1.34 | 1 | 1012.5 |
| 20260501184104 | 57 | 179 | 7.8 | 15.6 | 0.26 | 1.53 | 1.34 | 1 | 1012.6 |
| 20260501184004 | 58 | 177 | 7.8 | 15.6 | 0.26 | 1.53 | 1.34 | 1 | 1012.8 |
| 20260501183904 | 58 | 175 | 7.8 | 15.6 | 0.26 | 1.53 | 1.34 | 1 | 1012.9 |
| 20260501183804 | 58 | 173 | 7.8 | 15.6 | 0.27 | 1.53 | 1.34 | 1 | 1013.1 |
| 20260501183704 | 58 | 172 | 7.8 | 15.6 | 0.26 | 1.52 | 1.33 | 1 | 1013.3 |
| 20260501183604 | 57 | 171 | 7.8 | 15.6 | 0.27 | 1.52 | 1.33 | 1 | 1013.6 |
| 20260501183504 | 58 | 169 | 7.0 | 15.6 | 0.27 | 1.52 | 1.33 | 1 | 1013.7 |
| 20260501183404 | 58 | 166 | 6.1 | 15.6 | 0.28 | 1.52 | 1.33 | 1 | 1013.9 |
| 20260501183304 | 58 | 164 | 6.1 | 14.8 | 0.28 | 1.52 | 1.33 | 1 | 1014.1 |
| 20260501183204 | 58 | 161 | 6.1 | 14.8 | 0.28 | 1.51 | 1.32 | 1 | 1014.2 |
| 20260501183104 | 58 | 158 | 5.2 | 14.8 | 0.28 | 1.51 | 1.32 | 1 | 1014.4 |
| 20260501183004 | 58 | 157 | 5.2 | 14.8 | 0.29 | 1.51 | 1.32 | 1 | 1014.5 |
| 20260501182904 | 58 | 154 | 4.3 | 10.4 | 0.28 | 1.50 | 1.31 | 1 | 1014.6 |
| 20260501182804 | 58 | 151 | 4.3 | 10.4 | 0.28 | 1.50 | 1.31 | 1 | 1014.7 |
| 20260501182704 | 58 | 148 | 4.3 | 10.4 | 0.27 | 1.49 | 1.30 | 1 | 1014.8 |
| 20260501182604 | 58 | 145 | 4.3 | 10.4 | 0.26 | 1.48 | 1.29 | 1 | 1015.0 |
| 20260501182504 | 58 | 143 | 4.3 | 10.4 | 0.26 | 1.48 | 1.29 | 1 | 1015.1 |
| 20260501182404 | 58 | 143 | 4.3 | 10.4 | 0.25 | 1.47 | 1.28 | 1 | 1015.2 |
| 20260501182325 | 58 | 141 | 4.3 | 10.4 | 0.24 | 1.46 | 1.27 | 1 | 1015.2 |
| 20260501182204 | 58 | 142 | 4.3 | 10.4 | 0.23 | 1.45 | 1.26 | 1 | 1015.3 |
| 20260501182104 | 58 | 143 | 3.5 | 10.4 | 0.22 | 1.44 | 1.25 | 1 | 1015.4 |
| 20260501182004 | 58 | 143 | 3.5 | 8.7 | 0.21 | 1.43 | 1.24 | 1 | 1015.4 |
| 20260501181925 | 58 | 145 | 3.5 | 8.7 | 0.20 | 1.42 | 1.23 | 1 | 1015.5 |
| 20260501181804 | 58 | 149 | 4.3 | 10.4 | 0.19 | 1.41 | 1.22 | 1 | 1015.4 |
| 20260501181704 | 58 | 152 | 4.3 | 10.4 | 0.18 | 1.40 | 1.21 | 1 | 1015.4 |
| 20260501181604 | 58 | 155 | 4.3 | 10.4 | 0.17 | 1.39 | 1.20 | 1 | 1015.4 |
| 20260501181504 | 58 | 159 | 4.3 | 10.4 | 0.17 | 1.39 | 1.20 | 1 | 1015.3 |
| 20260501181425 | 58 | 161 | 4.3 | 10.4 | 0.16 | 1.38 | 1.19 | 1 | 1015.2 |
| 20260501181304 | 58 | 161 | 4.3 | 10.4 | 0.16 | 1.38 | 1.19 | 1 | 1015.1 |
| 20260501181204 | 58 | 162 | 5.2 | 10.4 | 0.15 | 1.37 | 1.18 | 1 | 1015.0 |
| 20260501181104 | 58 | 164 | 5.2 | 10.4 | 0.14 | 1.36 | 1.17 | 1 | 1014.9 |
| 20260501181025 | 58 | 165 | 5.2 | 10.4 | 0.14 | 1.36 | 1.17 | 1 | 1014.7 |
| 20260501180904 | 58 | 170 | 5.2 | 10.4 | 0.13 | 1.35 | 1.16 | 1 | 1014.5 |
| 20260501180804 | 58 | 171 | 5.2 | 9.6 | 0.12 | 1.34 | 1.15 | 1 | 1014.4 |
| 20260501180704 | 58 | 173 | 5.2 | 9.6 | 0.11 | 1.33 | 1.14 | 1 | 1014.2 |
| 20260501180625 | 58 | 174 | 5.2 | 8.7 | 0.11 | 1.33 | 1.14 | 1 | 1014.2 |
| 20260501180525 | 58 | 175 | 4.3 | 8.7 | 0.10 | 1.32 | 1.13 | 1 | 1014.0 |
| 20260501180404 | 58 | 179 | 4.3 | 8.7 | 0.10 | 1.32 | 1.13 | 1 | 1014.0 |
| 20260501180325 | 58 | 183 | 4.3 | 8.7 | 0.09 | 1.31 | 1.13 | 1 | 1013.9 |
| 20260501180204 | 58 | 188 | 4.3 | 8.7 | 0.09 | 1.31 | 1.12 | 1 | 1013.8 |
| 20260501180125 | 58 | 189 | 4.3 | 8.7 | 0.09 | 1.31 | 1.12 | 1 | 1013.7 |
| 20260501180004 | 58 | 194 | 4.3 | 8.7 | 0.09 | 1.31 | 1.12 | 1 | 1013.6 |
| 20260501175904 | 58 | 196 | 4.3 | 8.7 | 0.08 | 1.30 | 1.11 | 1 | 1013.6 |
| 20260501175804 | 58 | 197 | 4.3 | 8.7 | 0.08 | 1.30 | 1.11 | 1 | 1013.4 |
| 20260501175725 | 58 | 197 | 4.3 | 8.7 | 0.08 | 1.30 | 1.11 | 1 | 1013.3 |
| 20260501175604 | 58 | 200 | 4.3 | 8.7 | 0.08 | 1.30 | 1.11 | 1 | 1013.3 |
| 20260501175504 | 58 | 203 | 4.3 | 8.7 | 0.08 | 1.30 | 1.11 | 1 | 1013.3 |
| 20260501175404 | 58 | 204 | 4.3 | 8.7 | 0.08 | 1.30 | 1.11 | 1 | 1013.3 |
| 20260501175306 | 58 | 207 | 5.2 | 8.7 | 0.08 | 1.30 | 1.11 | 1 | 1013.3 |
| 20260501175204 | 58 | 208 | 5.2 | 10.4 | 0.07 | 1.29 | 1.10 | 1 | 1013.3 |
| 20260501175104 | 58 | 208 | 5.2 | 10.4 | 0.07 | 1.29 | 1.10 | 1 | 1013.3 |
| 20260501175025 | 58 | 208 | 5.2 | 10.4 | 0.07 | 1.29 | 1.10 | 1 | 1013.2 |
| 20260501174904 | 58 | 208 | 5.2 | 10.4 | 0.07 | 1.29 | 1.10 | 1 | 1013.2 |
| 20260501174804 | 58 | 210 | 6.1 | 10.4 | 0.07 | 1.29 | 1.10 | 1 | 1013.2 |
| 20260501174704 | 58 | 210 | 6.1 | 10.4 | 0.07 | 1.29 | 1.10 | 1 | 1013.2 |
| 20260501174604 | 58 | 210 | 6.1 | 10.4 | 0.06 | 1.28 | 1.09 | 1 | 1013.2 |
| 20260501174525 | 58 | 211 | 6.1 | 10.4 | 0.06 | 1.28 | 1.09 | 1 | 1013.2 |
| 20260501174404 | 58 | 210 | 5.2 | 10.4 | 0.06 | 1.28 | 1.09 | 1 | 1013.2 |
| 20260501174325 | 58 | 209 | 5.2 | 10.4 | 0.06 | 1.28 | 1.09 | 1 | 1013.3 |
| 20260501174225 | 58 | 209 | 5.2 | 10.4 | 0.06 | 1.28 | 1.09 | 1 | 1013.3 |
| 20260501174104 | 58 | 206 | 4.3 | 10.4 | 0.05 | 1.27 | 1.08 | 1 | 1013.2 |
| 20260501174025 | 58 | 205 | 4.3 | 10.4 | 0.05 | 1.27 | 1.08 | 1 | 1013.3 |
| 20260501173904 | 58 | 203 | 4.3 | 10.4 | 0.05 | 1.27 | 1.08 | 1 | 1013.3 |
| 20260501173804 | 58 | 201 | 4.3 | 9.6 | 0.04 | 1.26 | 1.07 | 1 | 1013.4 |
| 20260501173704 | 58 | 199 | 4.3 | 10.4 | 0.04 | 1.26 | 1.07 | 1 | 1013.4 |
| 20260501173604 | 58 | 196 | 4.3 | 10.4 | 0.03 | 1.25 | 1.06 | 1 | 1013.5 |
| 20260501173504 | 58 | 197 | 5.2 | 12.2 | 0.03 | 1.25 | 1.06 | 1 | 1013.5 |
| 20260501173404 | 58 | 199 | 5.2 | 12.2 | 0.02 | 1.24 | 1.05 | 1 | 1013.6 |
| 20260501173304 | 58 | 198 | 5.2 | 12.2 | 0.02 | 1.24 | 1.05 | 1 | 1013.5 |
| 20260501173204 | 58 | 198 | 6.1 | 12.2 | 0.01 | 1.23 | 1.04 | 1 | 1013.5 |
| 20260501173104 | 58 | 198 | 6.1 | 12.2 | 0.01 | 1.23 | 1.04 | 1 | 1013.5 |
| 20260501173025 | 58 | 199 | 6.1 | 12.2 | 0.00 | 1.22 | 1.04 | 1 | 1013.4 |
| 20260501172925 | 58 | 200 | 5.2 | 12.2 | 0.00 | 1.22 | 1.03 | 1 | 1013.4 |
| 20260501172804 | 58 | 202 | 5.2 | 12.2 | 0.00 | 1.22 | 1.03 | 1 | 1013.4 |
| 20260501172704 | 58 | 203 | 5.2 | 12.2 | 0.00 | 1.22 | 1.03 | 1 | 1013.4 |
| 20260501172604 | 58 | 205 | 5.2 | 12.2 | 0.00 | 1.22 | 1.03 | 1 | 1013.4 |
| 20260501172504 | 58 | 202 | 4.3 | 12.2 | 0.00 | 1.22 | 1.03 | 1 | 1013.3 |
| 20260501172404 | 58 | 200 | 4.3 | 12.2 | 0.00 | 1.22 | 1.03 | 1 | 1013.3 |
| 20260501172306 | 58 | 202 | 4.3 | 12.2 | 0.00 | 1.22 | 1.03 | 1 | 1013.2 |
| 20260501172204 | 58 | 206 | 4.3 | 11.3 | 0.00 | 1.22 | 1.03 | 1 | 1013.2 |
| 20260501172104 | 58 | 208 | 4.3 | 11.3 | 0.00 | 1.22 | 1.03 | 1 | 1013.2 |
| 20260501172004 | 58 | 209 | 5.2 | 12.2 | 0.00 | 1.22 | 1.03 | 1 | 1013.2 |
| 20260501171904 | 58 | 209 | 5.2 | 12.2 | 0.00 | 1.22 | 1.03 | 1 | 1013.2 |
| 20260501171804 | 58 | 208 | 6.1 | 13.0 | 0.00 | 1.22 | 1.03 | 1 | 1013.1 |
| 20260501171704 | 58 | 205 | 6.1 | 13.0 | 0.00 | 1.22 | 1.03 | 1 | 1013.0 |
| 20260501171604 | 58 | 206 | 6.1 | 13.0 | 0.00 | 1.22 | 1.03 | 1 | 1012.9 |
| 20260501171504 | 58 | 207 | 7.0 | 13.0 | 0.00 | 1.22 | 1.03 | 1 | 1012.9 |
| 20260501171404 | 58 | 209 | 7.0 | 13.0 | 0.00 | 1.22 | 1.03 | 1 | 1012.8 |
| 20260501171304 | 58 | 209 | 7.0 | 13.0 | 0.00 | 1.22 | 1.03 | 1 | 1012.8 |
| 20260501171204 | 58 | 208 | 7.0 | 13.0 | 0.00 | 1.22 | 1.03 | 1 | 1012.8 |
| 20260501171104 | 58 | 208 | 7.0 | 13.0 | 0.00 | 1.22 | 1.03 | 1 | 1012.7 |
| 20260501171025 | 58 | 207 | 7.0 | 13.0 | 0.00 | 1.22 | 1.03 | 1 | 1012.7 |
| 20260501170904 | 58 | 209 | 7.0 | 13.0 | 0.00 | 1.22 | 1.03 | 1 | 1012.7 |
| 20260501170825 | 58 | 209 | 7.0 | 13.0 | 0.00 | 1.22 | 1.03 | 1 | 1012.8 |
| 20260501170704 | 58 | 211 | 7.8 | 14.8 | 0.00 | 1.22 | 1.03 | 1 | 1012.7 |
| 20260501170604 | 58 | 211 | 7.8 | 14.8 | 0.00 | 1.22 | 1.03 | 1 | 1012.6 |
| 20260501170525 | 58 | 212 | 7.8 | 14.8 | 0.00 | 1.22 | 1.03 | 1 | 1012.6 |
| 20260501170404 | 58 | 210 | 7.8 | 14.8 | 0.01 | 1.22 | 1.03 | 1 | 1012.5 |
| 20260501170304 | 58 | 209 | 7.8 | 16.5 | 0.01 | 1.22 | 1.03 | 1 | 1012.5 |
| 20260501170204 | 58 | 211 | 7.8 | 18.2 | 0.01 | 1.22 | 1.03 | 1 | 1012.5 |
| 20260501170104 | 58 | 211 | 7.8 | 18.2 | 0.01 | 1.22 | 1.03 | 1 | 1012.5 |
| 20260501170004 | 58 | 211 | 7.8 | 18.2 | 0.01 | 1.22 | 1.03 | 1 | 1012.5 |
| 20260501165925 | 58 | 210 | 8.7 | 18.2 | 0.01 | 1.22 | 1.03 | 1 | 1012.6 |
| 20260501165825 | 58 | 211 | 8.7 | 18.2 | 0.01 | 1.22 | 1.03 | 1 | 1012.5 |
| 20260501165704 | 58 | 211 | 7.8 | 18.2 | 0.01 | 1.22 | 1.03 | 1 | 1012.5 |
| 20260501165625 | 58 | 211 | 7.8 | 18.2 | 0.01 | 1.22 | 1.03 | 1 | 1012.6 |
| 20260501165504 | 58 | 211 | 7.8 | 18.2 | 0.01 | 1.23 | 1.03 | 1 | 1012.7 |